Observation data for New Home on 11/19/2019      Previous  Date  Next       Current Mesonet Observations  Soil Data  Daily Summary Page  Observations in Plain Language
KNH1 190600Z 09005KT 11/00 A2998 RMK A01 T01090000  RH  047%=      5-min Rain = 0
KNH1 190601Z 09005KT 11/00 A2998 RMK A01 T01080001  RH  047%=      5-min Rain = 0
KNH1 190602Z 09005KT 11/00 A2998 RMK A01 T01080001  RH  047%=      5-min Rain = 0
KNH1 190603Z 09005KT 11/00 A2998 RMK A01 T01080001  RH  047%=      5-min Rain = 0
KNH1 190604Z 10005KT 11/00 A2998 RMK A01 T01080001  RH  048%=      5-min Rain = 0
KNH1 190605Z 10005KT 11/00 A2998 RMK A01 T01080001  RH  047%=      5-min Rain = 0
KNH1 190606Z 10005KT 11/00 A2998 RMK A01 T01080001  RH  047%=      5-min Rain = 0
KNH1 190607Z 10004KT 11/00 A2999 RMK A01 T01090001  RH  047%=      5-min Rain = 0
KNH1 190608Z 11004KT 11/00 A2999 RMK A01 T01090001  RH  047%=      5-min Rain = 0
KNH1 190609Z 11004KT 11/00 A2999 RMK A01 T01090000  RH  047%=      5-min Rain = 0
KNH1 190610Z 11003KT 11/00 A2999 RMK A01 T01090000  RH  047%=      5-min Rain = 0
KNH1 190611Z 11003KT 11/00 A2999 RMK A01 T01080001  RH  048%=      5-min Rain = 0
KNH1 190612Z 11003KT 11/00 A2999 RMK A01 T01070000  RH  048%=      5-min Rain = 0
KNH1 190613Z 12003KT 11/00 A2999 RMK A01 T01050002  RH  049%=      5-min Rain = 0
KNH1 190614Z 13003KT 10/00 A2999 RMK A01 T01040001  RH  049%=      5-min Rain = 0
KNH1 190615Z 14002KT 10/00 A2999 RMK A01 T01030001  RH  049%=      5-min Rain = 0
KNH1 190616Z 13002KT 10/00 A2999 RMK A01 T01000002  RH  051%=      5-min Rain = 0
KNH1 190617Z 13003KT 10/00 A2999 RMK A01 T00950002  RH  052%=      5-min Rain = 0
KNH1 190618Z 12003KT 09/00 A2999 RMK A01 T00920002  RH  053%=      5-min Rain = 0
KNH1 190619Z 11003KT 09/00 A2999 RMK A01 T00910001  RH  053%=      5-min Rain = 0
KNH1 190620Z 11003KT 09/00 A2999 RMK A01 T00910003  RH  054%=      5-min Rain = 0
KNH1 190621Z 11003KT 09/00 A2999 RMK A01 T00910004  RH  055%=      5-min Rain = 0
KNH1 190622Z 11003KT 09/00 A2999 RMK A01 T00910003  RH  054%=      5-min Rain = 0
KNH1 190623Z 12003KT 09/00 A2999 RMK A01 T00910002  RH  054%=      5-min Rain = 0
KNH1 190624Z 12003KT 09/00 A2999 RMK A01 T00910002  RH  054%=      5-min Rain = 0
KNH1 190625Z 13003KT 09/00 A2999 RMK A01 T00900001  RH  054%=      5-min Rain = 0
KNH1 190626Z 13003KT 09/00 A2999 RMK A01 T00900001  RH  053%=      5-min Rain = 0
KNH1 190627Z 13003KT 09/00 A2999 RMK A01 T00890000  RH  054%=      5-min Rain = 0
KNH1 190628Z 13003KT 09/00 A2999 RMK A01 T00890000  RH  054%=      5-min Rain = 0
KNH1 190629Z 13003KT 09/00 A30 RMK A01 T008900-0  RH  054%=      5-min Rain = 0
KNH1 190630Z 14003KT 09/M00 A30 RMK A01 T00891002  RH  053%=      5-min Rain = 0
KNH1 190631Z 14003KT 09/M00 A30 RMK A01 T00901002  RH  053%=      5-min Rain = 0
KNH1 190632Z 14003KT 09/M00 A30 RMK A01 T00901003  RH  052%=      5-min Rain = 0
KNH1 190633Z 14003KT 09/M00 A30 RMK A01 T00911002  RH  052%=      5-min Rain = 0
KNH1 190634Z 14003KT 09/M00 A30 RMK A01 T00921001  RH  052%=      5-min Rain = 0
KNH1 190635Z 14003KT 09/M00 A30 RMK A01 T00931001  RH  052%=      5-min Rain = 0
KNH1 190636Z 14003KT 09/M00 A30 RMK A01 T00931001  RH  052%=      5-min Rain = 0
KNH1 190637Z 15002KT 09/M00 A30 RMK A01 T00931001  RH  052%=      5-min Rain = 0
KNH1 190638Z 15002KT 09/00 A30 RMK A01 T00930001  RH  053%=      5-min Rain = 0
KNH1 190639Z 16000KT 09/00 A30 RMK A01 T00880002  RH  055%=      5-min Rain = 0
KNH1 190640Z 14000KT 08/00 A30 RMK A01 T00820002  RH  057%=      5-min Rain = 0
KNH1 190641Z 13002KT 08/00 A30 RMK A01 T00780002  RH  059%=      5-min Rain = 0
KNH1 190642Z 12002KT 08/00 A30 RMK A01 T00760003  RH  060%=      5-min Rain = 0
KNH1 190643Z 14002KT 08/00 A30 RMK A01 T00750004  RH  061%=      5-min Rain = 0
KNH1 190644Z 15002KT 07/00 A30 RMK A01 T00730004  RH  061%=      5-min Rain = 0
KNH1 190645Z 16002KT 07/00 A30 RMK A01 T00720004  RH  062%=      5-min Rain = 0
KNH1 190646Z 16002KT 07/01 A30 RMK A01 T00710005  RH  063%=      5-min Rain = 0
KNH1 190647Z 17002KT 07/01 A30 RMK A01 T00700005  RH  063%=      5-min Rain = 0
KNH1 190648Z 16002KT 07/01 A30 RMK A01 T00690005  RH  064%=      5-min Rain = 0
KNH1 190649Z 16002KT 07/01 A30 RMK A01 T00680005  RH  064%=      5-min Rain = 0
KNH1 190650Z 15002KT 07/01 A30 RMK A01 T00680005  RH  064%=      5-min Rain = 0
KNH1 190651Z 15002KT 07/01 A30 RMK A01 T00670005  RH  064%=      5-min Rain = 0
KNH1 190652Z 14001KT 07/01 A30 RMK A01 T00670005  RH  065%=      5-min Rain = 0
KNH1 190653Z 14001KT 07/01 A30 RMK A01 T00660006  RH  065%=      5-min Rain = 0
KNH1 190654Z 14001KT 07/01 A30 RMK A01 T00650006  RH  066%=      5-min Rain = 0
KNH1 190655Z 13001KT 06/01 A30 RMK A01 T00640005  RH  066%=      5-min Rain = 0
KNH1 190656Z 13002KT 06/01 A30 RMK A01 T00630005  RH  067%=      5-min Rain = 0
KNH1 190657Z 14002KT 06/01 A30 RMK A01 T00630006  RH  067%=      5-min Rain = 0
KNH1 190658Z 14002KT 06/01 A30 RMK A01 T00630006  RH  067%=      5-min Rain = 0
KNH1 190659Z 15002KT 06/01 A30 RMK A01 T00630006  RH  067%=      5-min Rain = 0
KNH1 190700Z 16002KT 06/01 A30 RMK A01 T00630006  RH  067%=      5-min Rain = 0
KNH1 190701Z 16002KT 06/01 A30 RMK A01 T00640007  RH  067%=      5-min Rain = 0
KNH1 190702Z 17002KT 06/01 A30 RMK A01 T00640007  RH  067%=      5-min Rain = 0
KNH1 190703Z 17002KT 07/01 A30 RMK A01 T00650007  RH  066%=      5-min Rain = 0
KNH1 190704Z 17002KT 07/01 A30 RMK A01 T00660007  RH  066%=      5-min Rain = 0
KNH1 190705Z 17002KT 07/01 A30 RMK A01 T00670007  RH  066%=      5-min Rain = 0
KNH1 190706Z 18001KT 07/01 A30 RMK A01 T00680007  RH  065%=      5-min Rain = 0
KNH1 190707Z 17002KT 07/01 A30 RMK A01 T00680006  RH  065%=      5-min Rain = 0
KNH1 190708Z 17002KT 07/01 A30 RMK A01 T00680006  RH  065%=      5-min Rain = 0
KNH1 190709Z 17002KT 07/01 A30 RMK A01 T00680006  RH  064%=      5-min Rain = 0
KNH1 190710Z 17002KT 07/01 A30 RMK A01 T00680006  RH  064%=      5-min Rain = 0
KNH1 190711Z 18002KT 07/01 A30 RMK A01 T00690006  RH  064%=      5-min Rain = 0
KNH1 190712Z 19001KT 07/01 A30 RMK A01 T00700006  RH  064%=      5-min Rain = 0
KNH1 190713Z 19002KT 07/01 A30 RMK A01 T00700006  RH  064%=      5-min Rain = 0
KNH1 190714Z 19001KT 07/01 A30 RMK A01 T00700006  RH  064%=      5-min Rain = 0
KNH1 190715Z 19001KT 07/01 A30 RMK A01 T00700006  RH  064%=      5-min Rain = 0
KNH1 190716Z 19001KT 07/01 A30 RMK A01 T00690006  RH  064%=      5-min Rain = 0
KNH1 190717Z 19002KT 07/01 A30 RMK A01 T00690006  RH  064%=      5-min Rain = 0
KNH1 190718Z 19002KT 07/01 A30 RMK A01 T00680006  RH  065%=      5-min Rain = 0
KNH1 190719Z 19002KT 07/01 A30 RMK A01 T00670006  RH  065%=      5-min Rain = 0
KNH1 190720Z 19002KT 07/01 A30 RMK A01 T00660006  RH  065%=      5-min Rain = 0
KNH1 190721Z 19002KT 07/01 A30 RMK A01 T00650006  RH  066%=      5-min Rain = 0
KNH1 190722Z 20002KT 07/01 A30 RMK A01 T00650006  RH  066%=      5-min Rain = 0
KNH1 190723Z 20002KT 06/01 A30 RMK A01 T00640006  RH  067%=      5-min Rain = 0
KNH1 190724Z 19001KT 06/01 A30 RMK A01 T00640006  RH  067%=      5-min Rain = 0
KNH1 190725Z 19001KT 06/01 A30 RMK A01 T00640006  RH  067%=      5-min Rain = 0
KNH1 190726Z 20001KT 06/01 A30 RMK A01 T00630006  RH  067%=      5-min Rain = 0
KNH1 190727Z 20000KT 06/01 A30 RMK A01 T00630006  RH  067%=      5-min Rain = 0
KNH1 190728Z 20000KT 06/01 A30 RMK A01 T00620006  RH  067%=      5-min Rain = 0
KNH1 190729Z 22000KT 06/01 A30 RMK A01 T00610006  RH  068%=      5-min Rain = 0
KNH1 190730Z 23001KT 06/01 A30 RMK A01 T00600006  RH  068%=      5-min Rain = 0
KNH1 190731Z 23001KT 06/01 A30 RMK A01 T00600007  RH  069%=      5-min Rain = 0
KNH1 190732Z 24001KT 06/01 A30 RMK A01 T00590007  RH  069%=      5-min Rain = 0
KNH1 190733Z 24002KT 06/01 A30 RMK A01 T00580006  RH  070%=      5-min Rain = 0
KNH1 190734Z 23002KT 06/01 A30 RMK A01 T00580007  RH  070%=      5-min Rain = 0
KNH1 190735Z 23002KT 06/01 A30 RMK A01 T00570007  RH  070%=      5-min Rain = 0
KNH1 190736Z 23002KT 06/01 A30 RMK A01 T00570007  RH  070%=      5-min Rain = 0
KNH1 190737Z 23002KT 06/01 A30 RMK A01 T00570007  RH  070%=      5-min Rain = 0
KNH1 190738Z 23002KT 06/01 A30 RMK A01 T00570007  RH  070%=      5-min Rain = 0
KNH1 190739Z 23002KT 06/01 A30 RMK A01 T00580007  RH  070%=      5-min Rain = 0
KNH1 190740Z 23002KT 06/01 A30 RMK A01 T00590008  RH  070%=      5-min Rain = 0
KNH1 190741Z 23002KT 06/01 A30 RMK A01 T00590008  RH  069%=      5-min Rain = 0
KNH1 190742Z 23002KT 06/01 A30 RMK A01 T00590008  RH  069%=      5-min Rain = 0
KNH1 190743Z 23003KT 06/01 A30 RMK A01 T00600007  RH  069%=      5-min Rain = 0
KNH1 190744Z 24003KT 06/01 A30 RMK A01 T00610008  RH  069%=      5-min Rain = 0
KNH1 190745Z 24003KT 06/01 A30 RMK A01 T00610008  RH  069%=      5-min Rain = 0
KNH1 190746Z 24003KT 06/01 A30 RMK A01 T00610008  RH  069%=      5-min Rain = 0
KNH1 190747Z 24003KT 06/01 A30 RMK A01 T00590007  RH  069%=      5-min Rain = 0
KNH1 190748Z 25003KT 06/01 A30 RMK A01 T00580007  RH  070%=      5-min Rain = 0
KNH1 190749Z 25003KT 06/01 A30 RMK A01 T00570007  RH  070%=      5-min Rain = 0
KNH1 190750Z 25003KT 06/01 A30 RMK A01 T00560007  RH  071%=      5-min Rain = 0
KNH1 190751Z 25003KT 06/01 A30 RMK A01 T00560007  RH  071%=      5-min Rain = 0
KNH1 190752Z 25003KT 06/01 A30 RMK A01 T00550007  RH  071%=      5-min Rain = 0
KNH1 190753Z 25003KT 06/01 A30 RMK A01 T00550007  RH  071%=      5-min Rain = 0
KNH1 190754Z 25003KT 06/01 A30 RMK A01 T00550007  RH  072%=      5-min Rain = 0
KNH1 190755Z 24003KT 05/01 A30 RMK A01 T00540007  RH  072%=      5-min Rain = 0
KNH1 190756Z 24003KT 05/01 A30 RMK A01 T00540007  RH  072%=      5-min Rain = 0
KNH1 190757Z 24003KT 05/01 A30 RMK A01 T00540007  RH  071%=      5-min Rain = 0
KNH1 190758Z 24003KT 06/01 A30 RMK A01 T00550007  RH  071%=      5-min Rain = 0
KNH1 190759Z 25004KT 06/01 A30 RMK A01 T00550007  RH  071%=      5-min Rain = 0
KNH1 190800Z 25003KT 06/01 A30 RMK A01 T00550007  RH  071%=      5-min Rain = 0
KNH1 190801Z 25003KT 06/01 A30 RMK A01 T00550006  RH  070%=      5-min Rain = 0
KNH1 190802Z 25003KT 06/01 A30 RMK A01 T00560006  RH  070%=      5-min Rain = 0
KNH1 190803Z 25003KT 06/01 A30 RMK A01 T00560005  RH  070%=      5-min Rain = 0
KNH1 190804Z 25003KT 06/01 A30 RMK A01 T00570006  RH  070%=      5-min Rain = 0
KNH1 190805Z 24002KT 06/01 A30 RMK A01 T00570006  RH  069%=      5-min Rain = 0
KNH1 190806Z 24002KT 06/01 A30 RMK A01 T00580005  RH  069%=      5-min Rain = 0
KNH1 190807Z 23002KT 06/01 A30 RMK A01 T00590006  RH  069%=      5-min Rain = 0
KNH1 190808Z 22002KT 06/01 A30 RMK A01 T00600006  RH  068%=      5-min Rain = 0
KNH1 190809Z 22002KT 06/01 A30 RMK A01 T00610005  RH  068%=      5-min Rain = 0
KNH1 190810Z 22002KT 06/01 A30 RMK A01 T00610005  RH  067%=      5-min Rain = 0
KNH1 190811Z 21002KT 06/01 A30 RMK A01 T00620005  RH  067%=      5-min Rain = 0
KNH1 190812Z 21002KT 06/01 A30 RMK A01 T00630005  RH  066%=      5-min Rain = 0
KNH1 190813Z 20002KT 06/00 A30 RMK A01 T00630004  RH  066%=      5-min Rain = 0
KNH1 190814Z 20002KT 06/00 A30 RMK A01 T00630004  RH  066%=      5-min Rain = 0
KNH1 190815Z 20002KT 06/00 A30 RMK A01 T00630003  RH  066%=      5-min Rain = 0
KNH1 190816Z 20002KT 06/00 A30 RMK A01 T00630003  RH  065%=      5-min Rain = 0
KNH1 190817Z 19003KT 06/00 A30 RMK A01 T00630003  RH  065%=      5-min Rain = 0
KNH1 190818Z 19003KT 06/00 A30 RMK A01 T00640003  RH  065%=      5-min Rain = 0
KNH1 190819Z 19003KT 07/00 A30 RMK A01 T00660003  RH  064%=      5-min Rain = 0
KNH1 190820Z 19003KT 07/00 A30 RMK A01 T00690003  RH  063%=      5-min Rain = 0
KNH1 190821Z 19003KT 07/00 A30 RMK A01 T00720003  RH  062%=      5-min Rain = 0
KNH1 190822Z 19003KT 07/00 A30 RMK A01 T00730003  RH  061%=      5-min Rain = 0
KNH1 190823Z 19003KT 08/00 A30 RMK A01 T00750002  RH  060%=      5-min Rain = 0
KNH1 190824Z 19002KT 08/00 A30 RMK A01 T00750002  RH  060%=      5-min Rain = 0
KNH1 190825Z 20002KT 08/00 A30 RMK A01 T00750001  RH  059%=      5-min Rain = 0
KNH1 190826Z 20002KT 08/00 A30 RMK A01 T00750001  RH  059%=      5-min Rain = 0
KNH1 190827Z 21002KT 08/00 A30 RMK A01 T00750001  RH  059%=      5-min Rain = 0
KNH1 190828Z 21002KT 08/00 A30 RMK A01 T00760001  RH  059%=      5-min Rain = 0
KNH1 190829Z 21002KT 08/00 A30 RMK A01 T00760001  RH  059%=      5-min Rain = 0
KNH1 190830Z 21002KT 08/00 A30 RMK A01 T00760001  RH  059%=      5-min Rain = 0
KNH1 190831Z 21002KT 08/00 A30 RMK A01 T00760001  RH  059%=      5-min Rain = 0
KNH1 190832Z 21002KT 08/00 A30 RMK A01 T00770001  RH  059%=      5-min Rain = 0
KNH1 190833Z 20002KT 08/00 A30 RMK A01 T00770001  RH  059%=      5-min Rain = 0
KNH1 190834Z 20001KT 08/00 A30 RMK A01 T00760001  RH  059%=      5-min Rain = 0
KNH1 190835Z 20002KT 08/00 A30 RMK A01 T00760001  RH  059%=      5-min Rain = 0
KNH1 190836Z 20002KT 08/00 A30 RMK A01 T00750001  RH  059%=      5-min Rain = 0
KNH1 190837Z 21002KT 07/00 A30 RMK A01 T00740001  RH  059%=      5-min Rain = 0
KNH1 190838Z 21001KT 07/00 A30 RMK A01 T00740000  RH  060%=      5-min Rain = 0
KNH1 190839Z 21001KT 07/00 A30 RMK A01 T00730001  RH  060%=      5-min Rain = 0
KNH1 190840Z 20001KT 07/00 A30 RMK A01 T00720001  RH  061%=      5-min Rain = 0
KNH1 190841Z 20001KT 07/00 A30 RMK A01 T00710001  RH  061%=      5-min Rain = 0
KNH1 190842Z 19000KT 07/00 A30 RMK A01 T00700001  RH  061%=      5-min Rain = 0
KNH1 190843Z 19000KT 07/00 A30 RMK A01 T00700002  RH  062%=      5-min Rain = 0
KNH1 190844Z 28000KT 07/00 A30 RMK A01 T00700004  RH  063%=      5-min Rain = 0
KNH1 190845Z 29001KT 07/00 A30 RMK A01 T00700004  RH  063%=      5-min Rain = 0
KNH1 190846Z 29002KT 07/00 A30 RMK A01 T00700004  RH  063%=      5-min Rain = 0
KNH1 190847Z 29001KT 07/01 A30 RMK A01 T00680005  RH  064%=      5-min Rain = 0
KNH1 190848Z 29000KT 07/01 A30 RMK A01 T00670005  RH  065%=      5-min Rain = 0
KNH1 190849Z 33000KT 07/01 A30 RMK A01 T00670005  RH  064%=      5-min Rain = 0
KNH1 190850Z 00000KT 07/00 A30 RMK A01 T00670004  RH  064%=      5-min Rain = 0
KNH1 190851Z 35000KT 07/00 A30 RMK A01 T00670003  RH  064%=      5-min Rain = 0
KNH1 190852Z 34001KT 07/00 A30 RMK A01 T00670003  RH  064%=      5-min Rain = 0
KNH1 190853Z 34001KT 07/00 A2999 RMK A01 T00670003  RH  064%=      5-min Rain = 0
KNH1 190854Z 34001KT 07/00 A2999 RMK A01 T00660003  RH  064%=      5-min Rain = 0
KNH1 190855Z 34000KT 07/00 A2999 RMK A01 T00660003  RH  064%=      5-min Rain = 0
KNH1 190856Z 34001KT 07/00 A2999 RMK A01 T00660004  RH  064%=      5-min Rain = 0
KNH1 190857Z 32001KT 07/00 A2999 RMK A01 T00660004  RH  065%=      5-min Rain = 0
KNH1 190858Z 31000KT 07/01 A2999 RMK A01 T00660005  RH  065%=      5-min Rain = 0
KNH1 190859Z 36000KT 07/01 A2999 RMK A01 T00650005  RH  065%=      5-min Rain = 0
KNH1 190900Z 00000KT 06/01 A2999 RMK A01 T00640005  RH  066%=      5-min Rain = 0
KNH1 190901Z 35000KT 06/01 A2999 RMK A01 T00640005  RH  066%=      5-min Rain = 0
KNH1 190902Z 35000KT 06/01 A2999 RMK A01 T00640005  RH  066%=      5-min Rain = 0
KNH1 190903Z 00000KT 06/01 A2999 RMK A01 T00640005  RH  066%=      5-min Rain = 0
KNH1 190904Z 00000KT 06/01 A2999 RMK A01 T00630005  RH  066%=      5-min Rain = 0
KNH1 190905Z 00000KT 06/01 A2999 RMK A01 T00630005  RH  067%=      5-min Rain = 0
KNH1 190906Z 00000KT 06/01 A2999 RMK A01 T00630005  RH  067%=      5-min Rain = 0
KNH1 190907Z 35000KT 06/01 A2999 RMK A01 T00620005  RH  067%=      5-min Rain = 0
KNH1 190908Z 36001KT 06/01 A2999 RMK A01 T00620005  RH  067%=      5-min Rain = 0
KNH1 190909Z 00001KT 06/01 A2999 RMK A01 T00620005  RH  067%=      5-min Rain = 0
KNH1 190910Z 00001KT 06/01 A2999 RMK A01 T00610005  RH  067%=      5-min Rain = 0
KNH1 190911Z 00001KT 06/01 A2999 RMK A01 T00610005  RH  067%=      5-min Rain = 0
KNH1 190912Z 01001KT 06/01 A2999 RMK A01 T00610005  RH  067%=      5-min Rain = 0
KNH1 190913Z 01001KT 06/00 A2999 RMK A01 T00610004  RH  067%=      5-min Rain = 0
KNH1 190914Z 01002KT 06/00 A2999 RMK A01 T00610004  RH  067%=      5-min Rain = 0
KNH1 190915Z 01001KT 06/00 A2999 RMK A01 T00610004  RH  067%=      5-min Rain = 0
KNH1 190916Z 01002KT 06/00 A2999 RMK A01 T00620004  RH  067%=      5-min Rain = 0
KNH1 190917Z 00002KT 06/01 A2999 RMK A01 T00610005  RH  067%=      5-min Rain = 0
KNH1 190918Z 35002KT 06/00 A2999 RMK A01 T00610004  RH  067%=      5-min Rain = 0
KNH1 190919Z 34002KT 06/00 A2999 RMK A01 T00600004  RH  067%=      5-min Rain = 0
KNH1 190920Z 32002KT 06/00 A2999 RMK A01 T00590004  RH  068%=      5-min Rain = 0
KNH1 190921Z 31001KT 06/01 A2999 RMK A01 T00590005  RH  068%=      5-min Rain = 0
KNH1 190922Z 30001KT 06/00 A2999 RMK A01 T00580004  RH  068%=      5-min Rain = 0
KNH1 190923Z 30001KT 06/00 A2999 RMK A01 T00560004  RH  069%=      5-min Rain = 0
KNH1 190924Z 31001KT 06/00 A2999 RMK A01 T00550004  RH  070%=      5-min Rain = 0
KNH1 190925Z 30001KT 05/00 A2999 RMK A01 T00540004  RH  070%=      5-min Rain = 0
KNH1 190926Z 29002KT 05/00 A2999 RMK A01 T00530004  RH  071%=      5-min Rain = 0
KNH1 190927Z 29002KT 05/00 A2999 RMK A01 T00520003  RH  071%=      5-min Rain = 0
KNH1 190928Z 28002KT 05/00 A2999 RMK A01 T00520003  RH  071%=      5-min Rain = 0
KNH1 190929Z 28002KT 05/00 A2999 RMK A01 T00530004  RH  070%=      5-min Rain = 0
KNH1 190930Z 28002KT 05/00 A2999 RMK A01 T00540004  RH  070%=      5-min Rain = 0
KNH1 190931Z 28002KT 05/00 A2999 RMK A01 T00540004  RH  070%=      5-min Rain = 0
KNH1 190932Z 27001KT 05/00 A2999 RMK A01 T00540004  RH  070%=      5-min Rain = 0
KNH1 190933Z 27001KT 05/00 A2999 RMK A01 T00540004  RH  070%=      5-min Rain = 0
KNH1 190934Z 29001KT 05/01 A2999 RMK A01 T00530005  RH  071%=      5-min Rain = 0
KNH1 190935Z 30001KT 05/01 A2999 RMK A01 T00520005  RH  071%=      5-min Rain = 0
KNH1 190936Z 29001KT 05/01 A2999 RMK A01 T00520005  RH  072%=      5-min Rain = 0
KNH1 190937Z 29001KT 05/00 A2999 RMK A01 T00510004  RH  072%=      5-min Rain = 0
KNH1 190938Z 29001KT 05/00 A2999 RMK A01 T00510004  RH  072%=      5-min Rain = 0
KNH1 190939Z 29001KT 05/00 A2999 RMK A01 T00510004  RH  072%=      5-min Rain = 0
KNH1 190940Z 28001KT 05/00 A2999 RMK A01 T00510004  RH  072%=      5-min Rain = 0
KNH1 190941Z 28001KT 05/00 A2999 RMK A01 T00500004  RH  072%=      5-min Rain = 0
KNH1 190942Z 27001KT 05/00 A2999 RMK A01 T00510004  RH  072%=      5-min Rain = 0
KNH1 190943Z 25001KT 05/00 A2999 RMK A01 T00500004  RH  072%=      5-min Rain = 0
KNH1 190944Z 23001KT 05/00 A2999 RMK A01 T00510004  RH  072%=      5-min Rain = 0
KNH1 190945Z 23001KT 05/00 A2999 RMK A01 T00520004  RH  071%=      5-min Rain = 0
KNH1 190946Z 23001KT 05/00 A2999 RMK A01 T00520004  RH  071%=      5-min Rain = 0
KNH1 190947Z 23001KT 05/00 A2999 RMK A01 T00530004  RH  070%=      5-min Rain = 0
KNH1 190948Z 22000KT 05/00 A2999 RMK A01 T00540003  RH  070%=      5-min Rain = 0
KNH1 190949Z 22000KT 05/00 A2999 RMK A01 T00540003  RH  070%=      5-min Rain = 0
KNH1 190950Z 00000KT 06/00 A2998 RMK A01 T00550004  RH  070%=      5-min Rain = 0
KNH1 190951Z 00000KT 06/00 A2998 RMK A01 T00550004  RH  069%=      5-min Rain = 0
KNH1 190952Z 00000KT 06/00 A2998 RMK A01 T00560004  RH  069%=      5-min Rain = 0
KNH1 190953Z 00000KT 06/00 A2998 RMK A01 T00560004  RH  069%=      5-min Rain = 0
KNH1 190954Z 00000KT 06/00 A2998 RMK A01 T00560004  RH  069%=      5-min Rain = 0
KNH1 190955Z 00000KT 06/00 A2998 RMK A01 T00560004  RH  069%=      5-min Rain = 0
KNH1 190956Z 00000KT 06/00 A2998 RMK A01 T00560004  RH  069%=      5-min Rain = 0
KNH1 190957Z 35000KT 06/00 A2998 RMK A01 T00560003  RH  069%=      5-min Rain = 0
KNH1 190958Z 35001KT 06/00 A2998 RMK A01 T00560002  RH  068%=      5-min Rain = 0
KNH1 190959Z 35001KT 06/00 A2998 RMK A01 T00570002  RH  068%=      5-min Rain = 0
KNH1 191000Z 01001KT 06/00 A2998 RMK A01 T00580002  RH  067%=      5-min Rain = 0
KNH1 191001Z 01001KT 06/00 A2998 RMK A01 T00590002  RH  067%=      5-min Rain = 0
KNH1 191002Z 01001KT 06/00 A2998 RMK A01 T00600003  RH  067%=      5-min Rain = 0
KNH1 191003Z 02002KT 06/00 A2998 RMK A01 T00600002  RH  066%=      5-min Rain = 0
KNH1 191004Z 02001KT 06/00 A2998 RMK A01 T00600001  RH  066%=      5-min Rain = 0
KNH1 191005Z 04001KT 06/00 A2998 RMK A01 T00620002  RH  066%=      5-min Rain = 0
KNH1 191006Z 06000KT 06/00 A2998 RMK A01 T00630003  RH  065%=      5-min Rain = 0
KNH1 191007Z 10000KT 06/00 A2998 RMK A01 T00640003  RH  065%=      5-min Rain = 0
KNH1 191008Z 11001KT 06/00 A2998 RMK A01 T00640003  RH  065%=      5-min Rain = 0
KNH1 191009Z 11000KT 07/00 A2998 RMK A01 T00650003  RH  064%=      5-min Rain = 0
KNH1 191010Z 00000KT 07/00 A2998 RMK A01 T00650003  RH  065%=      5-min Rain = 0
KNH1 191011Z 00000KT 07/00 A2998 RMK A01 T00650004  RH  065%=      5-min Rain = 0
KNH1 191012Z 20000KT 07/00 A2998 RMK A01 T00650003  RH  065%=      5-min Rain = 0
KNH1 191013Z 30002KT 06/00 A2998 RMK A01 T00640003  RH  065%=      5-min Rain = 0
KNH1 191014Z 30004KT 06/00 A2999 RMK A01 T00620003  RH  066%=      5-min Rain = 0
KNH1 191015Z 29009KT 06/00 A2999 RMK A01 T00600002  RH  066%=      5-min Rain = 0
KNH1 191016Z 28008KT 06/00 A2999 RMK A01 T00560003  RH  069%=      5-min Rain = 0
KNH1 191017Z 27005KT 05/01 A2999 RMK A01 T00540005  RH  071%=      5-min Rain = 0
KNH1 191018Z 27003KT 05/01 A2999 RMK A01 T00540006  RH  071%=      5-min Rain = 0
KNH1 191019Z 29003KT 05/01 A2999 RMK A01 T00530006  RH  071%=      5-min Rain = 0
KNH1 191020Z 29002KT 05/01 A2999 RMK A01 T00530006  RH  071%=      5-min Rain = 0
KNH1 191021Z 28003KT 05/01 A2999 RMK A01 T00530006  RH  072%=      5-min Rain = 0
KNH1 191022Z 29004KT 05/01 A2999 RMK A01 T00530005  RH  072%=      5-min Rain = 0
KNH1 191023Z 28004KT 05/01 A2999 RMK A01 T00530005  RH  071%=      5-min Rain = 0
KNH1 191024Z 29004KT 05/01 A2999 RMK A01 T00530005  RH  071%=      5-min Rain = 0
KNH1 191025Z 30003KT 05/01 A2999 RMK A01 T00540006  RH  071%=      5-min Rain = 0
KNH1 191026Z 30003KT 05/01 A2999 RMK A01 T00540006  RH  071%=      5-min Rain = 0
KNH1 191027Z 31002KT 05/01 A2999 RMK A01 T00540007  RH  072%=      5-min Rain = 0
KNH1 191028Z 31001KT 05/01 A2999 RMK A01 T00540007  RH  072%=      5-min Rain = 0
KNH1 191029Z 31002KT 06/01 A2999 RMK A01 T00550006  RH  071%=      5-min Rain = 0
KNH1 191030Z 28003KT 06/01 A2999 RMK A01 T00580007  RH  070%=      5-min Rain = 0
KNH1 191031Z 28005KT 06/01 A2999 RMK A01 T00580006  RH  069%=      5-min Rain = 0
KNH1 191032Z 28004KT 06/01 A2999 RMK A01 T00570006  RH  070%=      5-min Rain = 0
KNH1 191033Z 28004KT 06/01 A2999 RMK A01 T00550006  RH  071%=      5-min Rain = 0
KNH1 191034Z 28004KT 05/01 A2999 RMK A01 T00520006  RH  072%=      5-min Rain = 0
KNH1 191035Z 27004KT 05/01 A2999 RMK A01 T00510006  RH  073%=      5-min Rain = 0
KNH1 191036Z 28005KT 05/01 A2999 RMK A01 T00500006  RH  073%=      5-min Rain = 0
KNH1 191037Z 29004KT 05/01 A2999 RMK A01 T00490006  RH  073%=      5-min Rain = 0
KNH1 191038Z 29002KT 05/01 A2999 RMK A01 T00490007  RH  074%=      5-min Rain = 0
KNH1 191039Z 25001KT 05/01 A2999 RMK A01 T00490007  RH  074%=      5-min Rain = 0
KNH1 191040Z 28002KT 05/01 A2999 RMK A01 T00500007  RH  074%=      5-min Rain = 0
KNH1 191041Z 29003KT 05/01 A2999 RMK A01 T00510007  RH  073%=      5-min Rain = 0
KNH1 191042Z 30003KT 05/01 A2999 RMK A01 T00520007  RH  073%=      5-min Rain = 0
KNH1 191043Z 30003KT 05/01 A2999 RMK A01 T00520006  RH  072%=      5-min Rain = 0
KNH1 191044Z 30003KT 05/01 A2999 RMK A01 T00520006  RH  072%=      5-min Rain = 0
KNH1 191045Z 30002KT 05/01 A2999 RMK A01 T00520006  RH  072%=      5-min Rain = 0
KNH1 191046Z 30003KT 05/01 A2999 RMK A01 T00520006  RH  072%=      5-min Rain = 0
KNH1 191047Z 30002KT 05/01 A2999 RMK A01 T00520006  RH  072%=      5-min Rain = 0
KNH1 191048Z 30003KT 05/01 A2999 RMK A01 T00520006  RH  072%=      5-min Rain = 0
KNH1 191049Z 30004KT 05/01 A2999 RMK A01 T00540006  RH  071%=      5-min Rain = 0
KNH1 191050Z 30004KT 06/01 A2999 RMK A01 T00550006  RH  071%=      5-min Rain = 0
KNH1 191051Z 29004KT 06/01 A2999 RMK A01 T00560007  RH  070%=      5-min Rain = 0
KNH1 191052Z 29004KT 06/01 A2999 RMK A01 T00570007  RH  070%=      5-min Rain = 0
KNH1 191053Z 29003KT 06/01 A2999 RMK A01 T00570006  RH  070%=      5-min Rain = 0
KNH1 191054Z 29003KT 06/01 A2999 RMK A01 T00580006  RH  069%=      5-min Rain = 0
KNH1 191055Z 29003KT 06/01 A2999 RMK A01 T00580006  RH  069%=      5-min Rain = 0
KNH1 191056Z 29004KT 06/01 A2999 RMK A01 T00590006  RH  069%=      5-min Rain = 0
KNH1 191057Z 29004KT 06/01 A2999 RMK A01 T00600006  RH  068%=      5-min Rain = 0
KNH1 191058Z 29004KT 06/01 A2999 RMK A01 T00610006  RH  068%=      5-min Rain = 0
KNH1 191059Z 29004KT 06/01 A2999 RMK A01 T00610006  RH  068%=      5-min Rain = 0
KNH1 191100Z 29004KT 06/01 A2999 RMK A01 T00610005  RH  068%=      5-min Rain = 0
KNH1 191101Z 29004KT 06/01 A2999 RMK A01 T00600005  RH  068%=      5-min Rain = 0
KNH1 191102Z 30004KT 06/01 A2999 RMK A01 T00590005  RH  068%=      5-min Rain = 0
KNH1 191103Z 30003KT 06/01 A2999 RMK A01 T00580005  RH  069%=      5-min Rain = 0
KNH1 191104Z 31002KT 06/01 A2999 RMK A01 T00570005  RH  069%=      5-min Rain = 0
KNH1 191105Z 31002KT 06/01 A2999 RMK A01 T00560005  RH  069%=      5-min Rain = 0
KNH1 191106Z 32002KT 06/01 A2999 RMK A01 T00580005  RH  069%=      5-min Rain = 0
KNH1 191107Z 31002KT 06/01 A2999 RMK A01 T00590006  RH  069%=      5-min Rain = 0
KNH1 191108Z 31002KT 06/01 A2999 RMK A01 T00590006  RH  069%=      5-min Rain = 0
KNH1 191109Z 31003KT 06/01 A2999 RMK A01 T00590006  RH  069%=      5-min Rain = 0
KNH1 191110Z 32003KT 06/01 A2999 RMK A01 T00590006  RH  069%=      5-min Rain = 0
KNH1 191111Z 31003KT 06/01 A2999 RMK A01 T00590006  RH  069%=      5-min Rain = 0
KNH1 191112Z 32003KT 06/01 A2999 RMK A01 T00580006  RH  069%=      5-min Rain = 0
KNH1 191113Z 32002KT 06/01 A2999 RMK A01 T00580006  RH  069%=      5-min Rain = 0
KNH1 191114Z 32002KT 06/01 A2999 RMK A01 T00600006  RH  069%=      5-min Rain = 0
KNH1 191115Z 33002KT 06/01 A2999 RMK A01 T00610006  RH  068%=      5-min Rain = 0
KNH1 191116Z 33002KT 06/01 A2999 RMK A01 T00610006  RH  068%=      5-min Rain = 0
KNH1 191117Z 32002KT 06/01 A2999 RMK A01 T00610006  RH  068%=      5-min Rain = 0
KNH1 191118Z 32002KT 06/01 A2998 RMK A01 T00610006  RH  068%=      5-min Rain = 0
KNH1 191119Z 32003KT 06/01 A2998 RMK A01 T00600006  RH  068%=      5-min Rain = 0
KNH1 191120Z 32003KT 06/01 A2998 RMK A01 T00600006  RH  068%=      5-min Rain = 0
KNH1 191121Z 33003KT 06/01 A2998 RMK A01 T00590005  RH  068%=      5-min Rain = 0
KNH1 191122Z 33004KT 06/01 A2998 RMK A01 T00580005  RH  069%=      5-min Rain = 0
KNH1 191123Z 32004KT 06/00 A2998 RMK A01 T00560004  RH  069%=      5-min Rain = 0
KNH1 191124Z 32004KT 06/00 A2998 RMK A01 T00570004  RH  069%=      5-min Rain = 0
KNH1 191125Z 33005KT 06/00 A2998 RMK A01 T00590004  RH  068%=      5-min Rain = 0
KNH1 191126Z 34004KT 06/01 A2998 RMK A01 T00600005  RH  068%=      5-min Rain = 0
KNH1 191127Z 35002KT 06/01 A2998 RMK A01 T00590005  RH  068%=      5-min Rain = 0
KNH1 191128Z 35003KT 06/00 A2998 RMK A01 T00580004  RH  068%=      5-min Rain = 0
KNH1 191129Z 34003KT 06/00 A2998 RMK A01 T00580003  RH  068%=      5-min Rain = 0
KNH1 191130Z 35003KT 06/00 A2998 RMK A01 T00580004  RH  068%=      5-min Rain = 0
KNH1 191131Z 35003KT 06/00 A2998 RMK A01 T00580004  RH  068%=      5-min Rain = 0
KNH1 191132Z 33004KT 06/00 A2998 RMK A01 T00580003  RH  068%=      5-min Rain = 0
KNH1 191133Z 33004KT 06/00 A2998 RMK A01 T00590003  RH  068%=      5-min Rain = 0
KNH1 191134Z 34003KT 06/00 A2998 RMK A01 T00590003  RH  067%=      5-min Rain = 0
KNH1 191135Z 34003KT 06/00 A2998 RMK A01 T00590004  RH  068%=      5-min Rain = 0
KNH1 191136Z 35004KT 06/00 A2998 RMK A01 T00600004  RH  068%=      5-min Rain = 0
KNH1 191137Z 35004KT 06/00 A2998 RMK A01 T00590003  RH  067%=      5-min Rain = 0
KNH1 191138Z 35004KT 06/00 A2998 RMK A01 T00590004  RH  067%=      5-min Rain = 0
KNH1 191139Z 35004KT 06/00 A2998 RMK A01 T00590003  RH  067%=      5-min Rain = 0
KNH1 191140Z 35004KT 06/00 A2998 RMK A01 T00590003  RH  067%=      5-min Rain = 0
KNH1 191141Z 35003KT 06/00 A2998 RMK A01 T00580003  RH  067%=      5-min Rain = 0
KNH1 191142Z 36003KT 06/00 A2998 RMK A01 T00580003  RH  068%=      5-min Rain = 0
KNH1 191143Z 00004KT 06/00 A2998 RMK A01 T00580003  RH  068%=      5-min Rain = 0
KNH1 191144Z 00004KT 06/00 A2998 RMK A01 T00580004  RH  068%=      5-min Rain = 0
KNH1 191145Z 00004KT 06/00 A2998 RMK A01 T00580003  RH  068%=      5-min Rain = 0
KNH1 191146Z 00004KT 06/00 A2998 RMK A01 T00580003  RH  068%=      5-min Rain = 0
KNH1 191147Z 36005KT 06/00 A2998 RMK A01 T00590003  RH  067%=      5-min Rain = 0
KNH1 191148Z 00005KT 06/00 A2998 RMK A01 T00590003  RH  067%=      5-min Rain = 0
KNH1 191149Z 00005KT 06/00 A2998 RMK A01 T00600003  RH  067%=      5-min Rain = 0
KNH1 191150Z 00005KT 06/00 A2997 RMK A01 T00600003  RH  067%=      5-min Rain = 0
KNH1 191151Z 00004KT 06/00 A2997 RMK A01 T00620004  RH  066%=      5-min Rain = 0
KNH1 191152Z 01004KT 06/00 A2997 RMK A01 T00630004  RH  066%=      5-min Rain = 0
KNH1 191153Z 00004KT 06/00 A2997 RMK A01 T00630004  RH  066%=      5-min Rain = 0
KNH1 191154Z 00004KT 06/00 A2997 RMK A01 T00630004  RH  066%=      5-min Rain = 0
KNH1 191155Z 01004KT 06/01 A2997 RMK A01 T00630005  RH  066%=      5-min Rain = 0
KNH1 191156Z 01003KT 06/00 A2997 RMK A01 T00620004  RH  067%=      5-min Rain = 0
KNH1 191157Z 02003KT 06/00 A2997 RMK A01 T00600004  RH  067%=      5-min Rain = 0
KNH1 191158Z 02003KT 06/00 A2997 RMK A01 T00610003  RH  066%=      5-min Rain = 0
KNH1 191159Z 03003KT 06/00 A2997 RMK A01 T00630003  RH  065%=      5-min Rain = 0
KNH1 191200Z 02003KT 06/00 A2997 RMK A01 T00640003  RH  065%=      5-min Rain = 0
KNH1 191201Z 02003KT 06/00 A2997 RMK A01 T00640003  RH  065%=      5-min Rain = 0
KNH1 191202Z 02003KT 06/00 A2997 RMK A01 T00620003  RH  066%=      5-min Rain = 0
KNH1 191203Z 01003KT 06/00 A2997 RMK A01 T00610003  RH  066%=      5-min Rain = 0
KNH1 191204Z 01003KT 06/00 A2997 RMK A01 T00600003  RH  067%=      5-min Rain = 0
KNH1 191205Z 01003KT 06/00 A2997 RMK A01 T00600003  RH  067%=      5-min Rain = 0
KNH1 191206Z 01003KT 06/00 A2997 RMK A01 T00600003  RH  067%=      5-min Rain = 0
KNH1 191207Z 01003KT 06/00 A2997 RMK A01 T00600003  RH  067%=      5-min Rain = 0
KNH1 191208Z 01003KT 06/00 A2997 RMK A01 T00590003  RH  067%=      5-min Rain = 0
KNH1 191209Z 01003KT 06/00 A2997 RMK A01 T00610003  RH  067%=      5-min Rain = 0
KNH1 191210Z 02003KT 06/00 A2997 RMK A01 T00620003  RH  066%=      5-min Rain = 0
KNH1 191211Z 02003KT 06/00 A2997 RMK A01 T00620004  RH  066%=      5-min Rain = 0
KNH1 191212Z 02003KT 06/00 A2997 RMK A01 T00620003  RH  066%=      5-min Rain = 0
KNH1 191213Z 02004KT 06/00 A2997 RMK A01 T00610003  RH  066%=      5-min Rain = 0
KNH1 191214Z 03004KT 06/00 A2997 RMK A01 T00610003  RH  066%=      5-min Rain = 0
KNH1 191215Z 03004KT 06/00 A2997 RMK A01 T00590003  RH  067%=      5-min Rain = 0
KNH1 191216Z 03003KT 06/00 A2997 RMK A01 T00590002  RH  067%=      5-min Rain = 0
KNH1 191217Z 03004KT 06/00 A2997 RMK A01 T00600003  RH  067%=      5-min Rain = 0
KNH1 191218Z 03004KT 06/00 A2997 RMK A01 T00590003  RH  067%=      5-min Rain = 0
KNH1 191219Z 03003KT 06/00 A2997 RMK A01 T00580003  RH  068%=      5-min Rain = 0
KNH1 191220Z 02003KT 06/00 A2997 RMK A01 T00600003  RH  067%=      5-min Rain = 0
KNH1 191221Z 01002KT 06/00 A2997 RMK A01 T00610003  RH  067%=      5-min Rain = 0
KNH1 191222Z 02002KT 06/00 A2997 RMK A01 T00610003  RH  066%=      5-min Rain = 0
KNH1 191223Z 02003KT 06/00 A2997 RMK A01 T00620003  RH  066%=      5-min Rain = 0
KNH1 191224Z 02003KT 06/00 A2997 RMK A01 T00630003  RH  066%=      5-min Rain = 0
KNH1 191225Z 02003KT 06/00 A2997 RMK A01 T00620003  RH  066%=      5-min Rain = 0
KNH1 191226Z 03003KT 06/00 A2997 RMK A01 T00600003  RH  067%=      5-min Rain = 0
KNH1 191227Z 03003KT 06/00 A2997 RMK A01 T00580004  RH  068%=      5-min Rain = 0
KNH1 191228Z 03003KT 06/00 A2997 RMK A01 T00580004  RH  068%=      5-min Rain = 0
KNH1 191229Z 03003KT 06/00 A2997 RMK A01 T00570003  RH  068%=      5-min Rain = 0
KNH1 191230Z 03003KT 06/00 A2997 RMK A01 T00570004  RH  068%=      5-min Rain = 0
KNH1 191231Z 03003KT 06/00 A2997 RMK A01 T00570003  RH  069%=      5-min Rain = 0
KNH1 191232Z 03003KT 06/00 A2997 RMK A01 T00560003  RH  069%=      5-min Rain = 0
KNH1 191233Z 04004KT 06/00 A2997 RMK A01 T00580003  RH  068%=      5-min Rain = 0
KNH1 191234Z 04004KT 06/00 A2997 RMK A01 T00620003  RH  066%=      5-min Rain = 0
KNH1 191235Z 04004KT 06/00 A2997 RMK A01 T00630003  RH  066%=      5-min Rain = 0
KNH1 191236Z 04004KT 06/00 A2997 RMK A01 T00640003  RH  065%=      5-min Rain = 0
KNH1 191237Z 04004KT 06/00 A2997 RMK A01 T00640003  RH  065%=      5-min Rain = 0
KNH1 191238Z 04004KT 06/00 A2997 RMK A01 T00630004  RH  066%=      5-min Rain = 0
KNH1 191239Z 04005KT 06/00 A2997 RMK A01 T00630004  RH  066%=      5-min Rain = 0
KNH1 191240Z 04004KT 06/00 A2997 RMK A01 T00630003  RH  066%=      5-min Rain = 0
KNH1 191241Z 05004KT 06/00 A2997 RMK A01 T00630003  RH  065%=      5-min Rain = 0
KNH1 191242Z 05004KT 06/00 A2997 RMK A01 T00630003  RH  065%=      5-min Rain = 0
KNH1 191243Z 05004KT 06/00 A2997 RMK A01 T00630003  RH  066%=      5-min Rain = 0
KNH1 191244Z 04004KT 06/00 A2997 RMK A01 T00640003  RH  065%=      5-min Rain = 0
KNH1 191245Z 04005KT 06/00 A2997 RMK A01 T00640003  RH  065%=      5-min Rain = 0
KNH1 191246Z 04004KT 07/00 A2997 RMK A01 T00650003  RH  065%=      5-min Rain = 0
KNH1 191247Z 04004KT 06/00 A2997 RMK A01 T00640003  RH  065%=      5-min Rain = 0
KNH1 191248Z 04004KT 06/00 A2997 RMK A01 T00640003  RH  065%=      5-min Rain = 0
KNH1 191249Z 04004KT 06/00 A2997 RMK A01 T00640004  RH  066%=      5-min Rain = 0
KNH1 191250Z 04004KT 06/00 A2997 RMK A01 T00630004  RH  066%=      5-min Rain = 0
KNH1 191251Z 04004KT 06/00 A2997 RMK A01 T00630004  RH  066%=      5-min Rain = 0
KNH1 191252Z 04004KT 06/00 A2997 RMK A01 T00640003  RH  065%=      5-min Rain = 0
KNH1 191253Z 04004KT 07/00 A2997 RMK A01 T00660003  RH  064%=      5-min Rain = 0
KNH1 191254Z 04004KT 07/00 A2997 RMK A01 T00670003  RH  064%=      5-min Rain = 0
KNH1 191255Z 04003KT 07/00 A2997 RMK A01 T00670003  RH  064%=      5-min Rain = 0
KNH1 191256Z 04003KT 07/00 A2997 RMK A01 T00680003  RH  063%=      5-min Rain = 0
KNH1 191257Z 04003KT 07/00 A2997 RMK A01 T00690003  RH  063%=      5-min Rain = 0
KNH1 191258Z 04003KT 07/00 A2997 RMK A01 T00700003  RH  062%=      5-min Rain = 0
KNH1 191259Z 04003KT 07/00 A2997 RMK A01 T00710003  RH  062%=      5-min Rain = 0
KNH1 191300Z 04003KT 07/00 A2997 RMK A01 T00710002  RH  062%=      5-min Rain = 0
KNH1 191301Z 04003KT 07/00 A2997 RMK A01 T00710002  RH  062%=      5-min Rain = 0
KNH1 191302Z 04003KT 07/00 A2997 RMK A01 T00710002  RH  061%=      5-min Rain = 0
KNH1 191303Z 04002KT 07/00 A2997 RMK A01 T00710002  RH  061%=      5-min Rain = 0
KNH1 191304Z 04002KT 07/00 A2997 RMK A01 T00710002  RH  061%=      5-min Rain = 0
KNH1 191305Z 04002KT 07/00 A2997 RMK A01 T00710002  RH  061%=      5-min Rain = 0
KNH1 191306Z 04002KT 07/00 A2997 RMK A01 T00710002  RH  061%=      5-min Rain = 0
KNH1 191307Z 04002KT 07/00 A2997 RMK A01 T00710002  RH  062%=      5-min Rain = 0
KNH1 191308Z 03002KT 07/00 A2997 RMK A01 T00700002  RH  062%=      5-min Rain = 0
KNH1 191309Z 03002KT 07/00 A2997 RMK A01 T00700003  RH  062%=      5-min Rain = 0
KNH1 191310Z 03001KT 07/00 A2997 RMK A01 T00680003  RH  063%=      5-min Rain = 0
KNH1 191311Z 02001KT 07/00 A2997 RMK A01 T00670002  RH  063%=      5-min Rain = 0
KNH1 191312Z 02001KT 07/00 A2998 RMK A01 T00650002  RH  064%=      5-min Rain = 0
KNH1 191313Z 01000KT 06/00 A2998 RMK A01 T00630002  RH  065%=      5-min Rain = 0
KNH1 191314Z 00000KT 06/00 A2998 RMK A01 T00600001  RH  066%=      5-min Rain = 0
KNH1 191315Z 27000KT 06/00 A2998 RMK A01 T00560000  RH  067%=      5-min Rain = 0
KNH1 191316Z 27001KT 05/00 A2998 RMK A01 T00520000  RH  069%=      5-min Rain = 0
KNH1 191317Z 28000KT 05/00 A2998 RMK A01 T00490001  RH  071%=      5-min Rain = 0
KNH1 191318Z 00000KT 05/00 A2998 RMK A01 T00470002  RH  072%=      5-min Rain = 0
KNH1 191319Z 35000KT 05/00 A2998 RMK A01 T00460002  RH  073%=      5-min Rain = 0
KNH1 191320Z 35001KT 05/00 A2998 RMK A01 T00450003  RH  074%=      5-min Rain = 0
KNH1 191321Z 35000KT 05/00 A2998 RMK A01 T00450003  RH  074%=      5-min Rain = 0
KNH1 191322Z 00000KT 04/00 A2998 RMK A01 T00440003  RH  075%=      5-min Rain = 0
KNH1 191323Z 00000KT 04/00 A2998 RMK A01 T00440003  RH  075%=      5-min Rain = 0
KNH1 191324Z 00000KT 04/00 A2998 RMK A01 T00440003  RH  075%=      5-min Rain = 0
KNH1 191325Z 00000KT 04/00 A2998 RMK A01 T00430003  RH  075%=      5-min Rain = 0
KNH1 191326Z 00000KT 04/00 A2998 RMK A01 T00430003  RH  075%=      5-min Rain = 0
KNH1 191327Z 00000KT 04/00 A2998 RMK A01 T00420003  RH  076%=      5-min Rain = 0
KNH1 191328Z 00000KT 04/00 A2998 RMK A01 T00410003  RH  076%=      5-min Rain = 0
KNH1 191329Z 00000KT 04/00 A2998 RMK A01 T00410003  RH  077%=      5-min Rain = 0
KNH1 191330Z 00000KT 04/00 A2998 RMK A01 T00400004  RH  077%=      5-min Rain = 0
KNH1 191331Z 00000KT 04/00 A2998 RMK A01 T00390004  RH  077%=      5-min Rain = 0
KNH1 191332Z 00000KT 04/00 A2998 RMK A01 T00390004  RH  078%=      5-min Rain = 0
KNH1 191333Z 00000KT 04/00 A2998 RMK A01 T00390004  RH  078%=      5-min Rain = 0
KNH1 191334Z 00000KT 04/00 A2998 RMK A01 T00380004  RH  078%=      5-min Rain = 0
KNH1 191335Z 00000KT 04/00 A2998 RMK A01 T00390004  RH  078%=      5-min Rain = 0
KNH1 191336Z 00000KT 04/00 A2998 RMK A01 T00380004  RH  078%=      5-min Rain = 0
KNH1 191337Z 31001KT 04/00 A2998 RMK A01 T00380004  RH  078%=      5-min Rain = 0
KNH1 191338Z 29002KT 04/00 A2998 RMK A01 T00380004  RH  078%=      5-min Rain = 0
KNH1 191339Z 28002KT 04/00 A2998 RMK A01 T00380004  RH  078%=      5-min Rain = 0
KNH1 191340Z 27002KT 04/00 A2998 RMK A01 T00370004  RH  079%=      5-min Rain = 0
KNH1 191341Z 27003KT 04/00 A2998 RMK A01 T00370004  RH  079%=      5-min Rain = 0
KNH1 191342Z 27004KT 04/00 A2998 RMK A01 T00350003  RH  080%=      5-min Rain = 0
KNH1 191343Z 27005KT 03/00 A2998 RMK A01 T00340003  RH  080%=      5-min Rain = 0
KNH1 191344Z 27004KT 03/00 A2998 RMK A01 T00330003  RH  081%=      5-min Rain = 0
KNH1 191345Z 27004KT 03/00 A2998 RMK A01 T00320004  RH  082%=      5-min Rain = 0
KNH1 191346Z 27004KT 03/01 A2998 RMK A01 T00320005  RH  082%=      5-min Rain = 0
KNH1 191347Z 27004KT 03/01 A2998 RMK A01 T00320005  RH  082%=      5-min Rain = 0
KNH1 191348Z 27004KT 03/01 A2998 RMK A01 T00320005  RH  082%=      5-min Rain = 0
KNH1 191349Z 27004KT 03/01 A2998 RMK A01 T00320005  RH  082%=      5-min Rain = 0
KNH1 191350Z 28003KT 03/01 A2998 RMK A01 T00330005  RH  082%=      5-min Rain = 0
KNH1 191351Z 28003KT 03/01 A2998 RMK A01 T00330005  RH  082%=      5-min Rain = 0
KNH1 191352Z 27003KT 03/01 A2998 RMK A01 T00330005  RH  082%=      5-min Rain = 0
KNH1 191353Z 27003KT 03/01 A2998 RMK A01 T00330005  RH  082%=      5-min Rain = 0
KNH1 191354Z 26004KT 03/00 A2998 RMK A01 T00330004  RH  081%=      5-min Rain = 0
KNH1 191355Z 27004KT 03/01 A2998 RMK A01 T00340005  RH  081%=      5-min Rain = 0
KNH1 191356Z 27003KT 03/01 A2998 RMK A01 T00340006  RH  082%=      5-min Rain = 0
KNH1 191357Z 27003KT 04/01 A2998 RMK A01 T00350005  RH  081%=      5-min Rain = 0
KNH1 191358Z 27003KT 04/01 A2998 RMK A01 T00350005  RH  081%=      5-min Rain = 0
KNH1 191359Z 27003KT 04/01 A2998 RMK A01 T00350005  RH  081%=      5-min Rain = 0
KNH1 191400Z 27003KT 04/01 A2998 RMK A01 T00350005  RH  081%=      5-min Rain = 0
KNH1 191401Z 27003KT 04/01 A2998 RMK A01 T00360005  RH  080%=      5-min Rain = 0
KNH1 191402Z 28003KT 04/01 A2998 RMK A01 T00360005  RH  080%=      5-min Rain = 0
KNH1 191403Z 28003KT 04/01 A2998 RMK A01 T00370005  RH  080%=      5-min Rain = 0
KNH1 191404Z 28003KT 04/01 A2998 RMK A01 T00370005  RH  080%=      5-min Rain = 0
KNH1 191405Z 28003KT 04/01 A2998 RMK A01 T00370005  RH  080%=      5-min Rain = 0
KNH1 191406Z 28002KT 04/01 A2998 RMK A01 T00370005  RH  079%=      5-min Rain = 0
KNH1 191407Z 28002KT 04/01 A2998 RMK A01 T00370005  RH  079%=      5-min Rain = 0
KNH1 191408Z 29002KT 04/01 A2998 RMK A01 T00380005  RH  079%=      5-min Rain = 0
KNH1 191409Z 29002KT 04/01 A2998 RMK A01 T00380005  RH  079%=      5-min Rain = 0
KNH1 191410Z 29002KT 04/01 A2998 RMK A01 T00380005  RH  079%=      5-min Rain = 0
KNH1 191411Z 29002KT 04/01 A2998 RMK A01 T00380005  RH  079%=      5-min Rain = 0
KNH1 191412Z 30002KT 04/01 A2998 RMK A01 T00380006  RH  079%=      5-min Rain = 0
KNH1 191413Z 30002KT 04/01 A2998 RMK A01 T00390007  RH  080%=      5-min Rain = 0
KNH1 191414Z 30002KT 04/01 A2998 RMK A01 T00400008  RH  080%=      5-min Rain = 0
KNH1 191415Z 30001KT 04/01 A2998 RMK A01 T00400009  RH  080%=      5-min Rain = 0
KNH1 191416Z 30001KT 04/01 A2998 RMK A01 T00410010  RH  080%=      5-min Rain = 0
KNH1 191417Z 31001KT 04/01 A2998 RMK A01 T00420011  RH  080%=      5-min Rain = 0
KNH1 191418Z 32001KT 04/01 A2998 RMK A01 T00430011  RH  080%=      5-min Rain = 0
KNH1 191419Z 32000KT 04/01 A2998 RMK A01 T00440010  RH  079%=      5-min Rain = 0
KNH1 191420Z 00000KT 05/01 A2998 RMK A01 T00450010  RH  078%=      5-min Rain = 0
KNH1 191421Z 00000KT 05/01 A2998 RMK A01 T00470010  RH  077%=      5-min Rain = 0
KNH1 191422Z 00000KT 05/01 A2998 RMK A01 T00480009  RH  075%=      5-min Rain = 0
KNH1 191423Z 00000KT 05/01 A2998 RMK A01 T00500007  RH  074%=      5-min Rain = 0
KNH1 191424Z 00000KT 05/01 A2998 RMK A01 T00520007  RH  073%=      5-min Rain = 0
KNH1 191425Z 00000KT 05/01 A2998 RMK A01 T00530006  RH  072%=      5-min Rain = 0
KNH1 191426Z 00000KT 05/01 A2998 RMK A01 T00540008  RH  072%=      5-min Rain = 0
KNH1 191427Z 00000KT 06/01 A2998 RMK A01 T00550012  RH  074%=      5-min Rain = 0
KNH1 191428Z 00000KT 06/01 A2998 RMK A01 T00560014  RH  074%=      5-min Rain = 0
KNH1 191429Z 34000KT 06/02 A2998 RMK A01 T00580018  RH  075%=      5-min Rain = 0
KNH1 191430Z 00000KT 06/02 A2998 RMK A01 T00600020  RH  076%=      5-min Rain = 0
KNH1 191431Z 00000KT 06/02 A2998 RMK A01 T00620022  RH  075%=      5-min Rain = 0
KNH1 191432Z 00000KT 06/02 A2998 RMK A01 T00630022  RH  075%=      5-min Rain = 0
KNH1 191433Z 34000KT 06/02 A2998 RMK A01 T00640024  RH  075%=      5-min Rain = 0
KNH1 191434Z 35001KT 07/02 A2998 RMK A01 T00660024  RH  075%=      5-min Rain = 0
KNH1 191435Z 00000KT 07/02 A2998 RMK A01 T00670023  RH  074%=      5-min Rain = 0
KNH1 191436Z 00000KT 07/02 A2998 RMK A01 T00690023  RH  073%=      5-min Rain = 0
KNH1 191437Z 00000KT 07/02 A2998 RMK A01 T00700023  RH  072%=      5-min Rain = 0
KNH1 191438Z 00000KT 07/02 A2998 RMK A01 T00710022  RH  071%=      5-min Rain = 0
KNH1 191439Z 35000KT 07/03 A2998 RMK A01 T00720025  RH  072%=      5-min Rain = 0
KNH1 191440Z 35001KT 07/03 A2998 RMK A01 T00740029  RH  073%=      5-min Rain = 0
KNH1 191441Z 35000KT 08/03 A2998 RMK A01 T00750027  RH  071%=      5-min Rain = 0
KNH1 191442Z 00000KT 08/03 A2998 RMK A01 T00760028  RH  072%=      5-min Rain = 0
KNH1 191443Z 35000KT 08/03 A2998 RMK A01 T00770029  RH  072%=      5-min Rain = 0
KNH1 191444Z 35001KT 08/03 A2998 RMK A01 T00780028  RH  071%=      5-min Rain = 0
KNH1 191445Z 35000KT 08/03 A2998 RMK A01 T00790029  RH  070%=      5-min Rain = 0
KNH1 191446Z 00000KT 08/03 A2998 RMK A01 T00800030  RH  071%=      5-min Rain = 0
KNH1 191447Z 00000KT 08/03 A2998 RMK A01 T00810030  RH  070%=      5-min Rain = 0
KNH1 191448Z 00000KT 08/03 A2998 RMK A01 T00820030  RH  070%=      5-min Rain = 0
KNH1 191449Z 00000KT 08/03 A2998 RMK A01 T00830032  RH  070%=      5-min Rain = 0
KNH1 191450Z 00000KT 08/03 A2998 RMK A01 T00840032  RH  070%=      5-min Rain = 0
KNH1 191451Z 00000KT 09/03 A2999 RMK A01 T00850030  RH  069%=      5-min Rain = 0
KNH1 191452Z 00000KT 09/03 A2999 RMK A01 T00850030  RH  068%=      5-min Rain = 0
KNH1 191453Z 00000KT 09/03 A2999 RMK A01 T00860032  RH  068%=      5-min Rain = 0
KNH1 191454Z 14000KT 09/03 A2999 RMK A01 T00880034  RH  069%=      5-min Rain = 0
KNH1 191455Z 00000KT 09/03 A2999 RMK A01 T00890032  RH  068%=      5-min Rain = 0
KNH1 191456Z 00000KT 09/03 A2999 RMK A01 T00900034  RH  068%=      5-min Rain = 0
KNH1 191457Z 14001KT 09/04 A2999 RMK A01 T00910039  RH  070%=      5-min Rain = 0
KNH1 191458Z 15001KT 09/04 A2999 RMK A01 T00930035  RH  067%=      5-min Rain = 0
KNH1 191459Z 18001KT 10/03 A2999 RMK A01 T00950034  RH  066%=      5-min Rain = 0
KNH1 191500Z 17001KT 10/04 A2999 RMK A01 T00970039  RH  067%=      5-min Rain = 0
KNH1 191501Z 16002KT 10/04 A2999 RMK A01 T01010036  RH  064%=      5-min Rain = 0
KNH1 191502Z 17003KT 11/03 A2999 RMK A01 T01060029  RH  059%=      5-min Rain = 0
KNH1 191503Z 16003KT 11/03 A2999 RMK A01 T01100026  RH  056%=      5-min Rain = 0
KNH1 191504Z 17002KT 11/03 A2999 RMK A01 T01140025  RH  054%=      5-min Rain = 0
KNH1 191505Z 16002KT 12/03 A2999 RMK A01 T01170029  RH  055%=      5-min Rain = 0
KNH1 191506Z 16003KT 12/03 A2999 RMK A01 T01190025  RH  053%=      5-min Rain = 0
KNH1 191507Z 16004KT 12/03 A2999 RMK A01 T01200027  RH  053%=      5-min Rain = 0
KNH1 191508Z 17003KT 12/03 A2999 RMK A01 T01210027  RH  053%=      5-min Rain = 0
KNH1 191509Z 16004KT 12/03 A2999 RMK A01 T01220027  RH  052%=      5-min Rain = 0
KNH1 191510Z 16004KT 12/03 A2999 RMK A01 T01220029  RH  053%=      5-min Rain = 0
KNH1 191511Z 17004KT 12/03 A2999 RMK A01 T01230030  RH  053%=      5-min Rain = 0
KNH1 191512Z 16003KT 12/03 A2999 RMK A01 T01240031  RH  053%=      5-min Rain = 0
KNH1 191513Z 17004KT 13/03 A2999 RMK A01 T01260033  RH  053%=      5-min Rain = 0
KNH1 191514Z 17006KT 13/03 A2999 RMK A01 T01270029  RH  051%=      5-min Rain = 0
KNH1 191515Z 17005KT 13/03 A2999 RMK A01 T01270028  RH  051%=      5-min Rain = 0
KNH1 191516Z 17005KT 13/03 A2999 RMK A01 T01270028  RH  051%=      5-min Rain = 0
KNH1 191517Z 16004KT 13/03 A2999 RMK A01 T01280031  RH  052%=      5-min Rain = 0
KNH1 191518Z 16005KT 13/03 A2999 RMK A01 T01280031  RH  052%=      5-min Rain = 0
KNH1 191519Z 16006KT 13/03 A2999 RMK A01 T01290032  RH  052%=      5-min Rain = 0
KNH1 191520Z 16006KT 13/03 A2999 RMK A01 T01300033  RH  052%=      5-min Rain = 0
KNH1 191521Z 16007KT 13/03 A2999 RMK A01 T01300034  RH  052%=      5-min Rain = 0
KNH1 191522Z 16008KT 13/03 A2999 RMK A01 T01320029  RH  050%=      5-min Rain = 0
KNH1 191523Z 15007KT 13/03 A2999 RMK A01 T01330028  RH  049%=      5-min Rain = 0
KNH1 191524Z 16009KT 13/03 A2999 RMK A01 T01330028  RH  049%=      5-min Rain = 0
KNH1 191525Z 17007KT 13/03 A2999 RMK A01 T01340027  RH  048%=      5-min Rain = 0
KNH1 191526Z 17006KT 13/03 A2999 RMK A01 T01340028  RH  049%=      5-min Rain = 0
KNH1 191527Z 17008KT 13/03 A2999 RMK A01 T01340027  RH  048%=      5-min Rain = 0
KNH1 191528Z 17007KT 13/02 A2999 RMK A01 T01340024  RH  047%=      5-min Rain = 0
KNH1 191529Z 17008KT 13/02 A2999 RMK A01 T01340024  RH  047%=      5-min Rain = 0
KNH1 191530Z 17009KT 13/02 A2999 RMK A01 T01340023  RH  047%=      5-min Rain = 0
KNH1 191531Z 17007KT 13/03 A2999 RMK A01 T01330025  RH  048%=      5-min Rain = 0
KNH1 191532Z 17008KT 13/03 A2999 RMK A01 T01330027  RH  049%=      5-min Rain = 0
KNH1 191533Z 17007KT 13/03 A2999 RMK A01 T01330028  RH  049%=      5-min Rain = 0
KNH1 191534Z 17006KT 13/03 A2999 RMK A01 T01330028  RH  049%=      5-min Rain = 0
KNH1 191535Z 17006KT 13/03 A2999 RMK A01 T01330029  RH  049%=      5-min Rain = 0
KNH1 191536Z 17005KT 13/03 A2999 RMK A01 T01330030  RH  050%=      5-min Rain = 0
KNH1 191537Z 17006KT 13/03 A2999 RMK A01 T01330032  RH  050%=      5-min Rain = 0
KNH1 191538Z 16005KT 13/03 A2999 RMK A01 T01330033  RH  050%=      5-min Rain = 0
KNH1 191539Z 17005KT 13/03 A2999 RMK A01 T01340033  RH  050%=      5-min Rain = 0
KNH1 191540Z 17004KT 14/03 A2999 RMK A01 T01350033  RH  050%=      5-min Rain = 0
KNH1 191541Z 16005KT 14/03 A2999 RMK A01 T01360032  RH  049%=      5-min Rain = 0
KNH1 191542Z 16005KT 14/03 A2999 RMK A01 T01370033  RH  049%=      5-min Rain = 0
KNH1 191543Z 17004KT 14/03 A2999 RMK A01 T01390032  RH  049%=      5-min Rain = 0
KNH1 191544Z 17005KT 14/03 A2999 RMK A01 T01410032  RH  048%=      5-min Rain = 0
KNH1 191545Z 17004KT 14/03 A2999 RMK A01 T01410030  RH  047%=      5-min Rain = 0
KNH1 191546Z 17005KT 14/03 A2999 RMK A01 T01410030  RH  047%=      5-min Rain = 0
KNH1 191547Z 17004KT 14/03 A2999 RMK A01 T01420032  RH  047%=      5-min Rain = 0
KNH1 191548Z 17004KT 14/03 A2999 RMK A01 T01430034  RH  048%=      5-min Rain = 0
KNH1 191549Z 16006KT 15/03 A2999 RMK A01 T01450030  RH  046%=      5-min Rain = 0
KNH1 191550Z 17006KT 15/03 A2999 RMK A01 T01460030  RH  046%=      5-min Rain = 0
KNH1 191551Z 18006KT 15/03 A2999 RMK A01 T01450028  RH  045%=      5-min Rain = 0
KNH1 191552Z 17006KT 15/03 A2999 RMK A01 T01450028  RH  045%=      5-min Rain = 0
KNH1 191553Z 17005KT 15/03 A2999 RMK A01 T01450027  RH  045%=      5-min Rain = 0
KNH1 191554Z 16005KT 15/03 A2999 RMK A01 T01460030  RH  046%=      5-min Rain = 0
KNH1 191555Z 16006KT 15/03 A2999 RMK A01 T01470029  RH  045%=      5-min Rain = 0
KNH1 191556Z 17006KT 15/03 A2999 RMK A01 T01480027  RH  044%=      5-min Rain = 0
KNH1 191557Z 17006KT 15/03 A2999 RMK A01 T01480026  RH  044%=      5-min Rain = 0
KNH1 191558Z 16005KT 15/03 A2999 RMK A01 T01490030  RH  045%=      5-min Rain = 0
KNH1 191559Z 16006KT 15/03 A2999 RMK A01 T01510031  RH  044%=      5-min Rain = 0
KNH1 191600Z 16006KT 15/03 A2999 RMK A01 T01520029  RH  043%=      5-min Rain = 0
KNH1 191601Z 16007KT 15/03 A2999 RMK A01 T01530032  RH  044%=      5-min Rain = 0
KNH1 191602Z 17006KT 15/03 A2999 RMK A01 T01530028  RH  043%=      5-min Rain = 0
KNH1 191603Z 17006KT 15/03 A2999 RMK A01 T01530029  RH  043%=      5-min Rain = 0
KNH1 191604Z 17007KT 15/03 A2999 RMK A01 T01540030  RH  043%=      5-min Rain = 0
KNH1 191605Z 16006KT 15/03 A2999 RMK A01 T01540028  RH  043%=      5-min Rain = 0
KNH1 191606Z 17006KT 15/03 A2999 RMK A01 T01540028  RH  043%=      5-min Rain = 0
KNH1 191607Z 16007KT 15/03 A2999 RMK A01 T01540027  RH  043%=      5-min Rain = 0
KNH1 191608Z 17007KT 16/03 A2999 RMK A01 T01560029  RH  043%=      5-min Rain = 0
KNH1 191609Z 17008KT 16/03 A2999 RMK A01 T01560027  RH  042%=      5-min Rain = 0
KNH1 191610Z 16006KT 16/03 A2999 RMK A01 T01560027  RH  042%=      5-min Rain = 0
KNH1 191611Z 18007KT 16/03 A2998 RMK A01 T01580028  RH  042%=      5-min Rain = 0
KNH1 191612Z 17007KT 16/03 A2998 RMK A01 T01590026  RH  041%=      5-min Rain = 0
KNH1 191613Z 17006KT 16/03 A2998 RMK A01 T01590027  RH  041%=      5-min Rain = 0
KNH1 191614Z 16007KT 16/03 A2998 RMK A01 T01600030  RH  042%=      5-min Rain = 0
KNH1 191615Z 17008KT 16/03 A2998 RMK A01 T01620027  RH  040%=      5-min Rain = 0
KNH1 191616Z 17008KT 16/03 A2998 RMK A01 T01630025  RH  040%=      5-min Rain = 0
KNH1 191617Z 17009KT 16/03 A2998 RMK A01 T01630026  RH  040%=      5-min Rain = 0
KNH1 191618Z 17008KT 16/03 A2998 RMK A01 T01630025  RH  040%=      5-min Rain = 0
KNH1 191619Z 18006KT 16/03 A2998 RMK A01 T01640028  RH  040%=      5-min Rain = 0
KNH1 191620Z 17009KT 17/03 A2998 RMK A01 T01650031  RH  041%=      5-min Rain = 0
KNH1 191621Z 18008KT 17/03 A2998 RMK A01 T01660029  RH  040%=      5-min Rain = 0
KNH1 191622Z 18008KT 17/03 A2998 RMK A01 T01670029  RH  040%=      5-min Rain = 0
KNH1 191623Z 17006KT 17/03 A2998 RMK A01 T01670032  RH  040%=      5-min Rain = 0
KNH1 191624Z 17007KT 17/03 A2998 RMK A01 T01690033  RH  040%=      5-min Rain = 0
KNH1 191625Z 18009KT 17/03 A2998 RMK A01 T01690030  RH  039%=      5-min Rain = 0
KNH1 191626Z 17008KT 17/03 A2998 RMK A01 T01690030  RH  040%=      5-min Rain = 0
KNH1 191627Z 18008KT 17/03 A2998 RMK A01 T01690028  RH  039%=      5-min Rain = 0
KNH1 191628Z 19008KT 17/03 A2998 RMK A01 T01700026  RH  038%=      5-min Rain = 0
KNH1 191629Z 18009KT 17/03 A2998 RMK A01 T01720025  RH  037%=      5-min Rain = 0
KNH1 191630Z 18009KT 17/02 A2998 RMK A01 T01740024  RH  037%=      5-min Rain = 0
KNH1 191631Z 18009KT 17/02 A2998 RMK A01 T01740020  RH  036%=      5-min Rain = 0
KNH1 191632Z 17008KT 17/02 A2998 RMK A01 T01740021  RH  036%=      5-min Rain = 0
KNH1 191633Z 18008KT 17/02 A2998 RMK A01 T01740023  RH  036%=      5-min Rain = 0
KNH1 191634Z 18007KT 18/02 A2998 RMK A01 T01750024  RH  036%=      5-min Rain = 0
KNH1 191635Z 18009KT 18/02 A2998 RMK A01 T01760022  RH  036%=      5-min Rain = 0
KNH1 191636Z 17009KT 18/02 A2998 RMK A01 T01750021  RH  036%=      5-min Rain = 0
KNH1 191637Z 17009KT 18/02 A2998 RMK A01 T01760021  RH  035%=      5-min Rain = 0
KNH1 191638Z 17008KT 18/02 A2998 RMK A01 T01760023  RH  036%=      5-min Rain = 0
KNH1 191639Z 18008KT 18/02 A2998 RMK A01 T01760022  RH  036%=      5-min Rain = 0
KNH1 191640Z 18008KT 18/02 A2998 RMK A01 T01760024  RH  036%=      5-min Rain = 0
KNH1 191641Z 18007KT 18/03 A2998 RMK A01 T01770025  RH  036%=      5-min Rain = 0
KNH1 191642Z 18008KT 18/02 A2998 RMK A01 T01780024  RH  036%=      5-min Rain = 0
KNH1 191643Z 17008KT 18/02 A2998 RMK A01 T01780024  RH  035%=      5-min Rain = 0
KNH1 191644Z 18008KT 18/03 A2998 RMK A01 T01790027  RH  036%=      5-min Rain = 0
KNH1 191645Z 19007KT 18/03 A2998 RMK A01 T01800028  RH  036%=      5-min Rain = 0
KNH1 191646Z 19007KT 18/03 A2998 RMK A01 T01820027  RH  036%=      5-min Rain = 0
KNH1 191647Z 18009KT 18/03 A2998 RMK A01 T01820026  RH  035%=      5-min Rain = 0
KNH1 191648Z 19009KT 18/03 A2998 RMK A01 T01830027  RH  035%=      5-min Rain = 0
KNH1 191649Z 18010KT 18/02 A2998 RMK A01 T01840023  RH  034%=      5-min Rain = 0
KNH1 191650Z 19010KT 18/02 A2998 RMK A01 T01840023  RH  034%=      5-min Rain = 0
KNH1 191651Z 18009KT 18/02 A2998 RMK A01 T01830024  RH  035%=      5-min Rain = 0
KNH1 191652Z 19010KT 18/02 A2998 RMK A01 T01830021  RH  034%=      5-min Rain = 0
KNH1 191653Z 19010KT 18/02 A2998 RMK A01 T01830020  RH  034%=      5-min Rain = 0
KNH1 191654Z 19009KT 18/02 A2998 RMK A01 T01840021  RH  034%=      5-min Rain = 0
KNH1 191655Z 19009KT 18/02 A2998 RMK A01 T01840020  RH  033%=      5-min Rain = 0
KNH1 191656Z 20010KT 19/02 A2998 RMK A01 T01850020  RH  033%=      5-min Rain = 0
KNH1 191657Z 20011KT 19/02 A2998 RMK A01 T01860018  RH  033%=      5-min Rain = 0
KNH1 191658Z 20011KT 19/02 A2998 RMK A01 T01860018  RH  033%=      5-min Rain = 0
KNH1 191659Z 20010KT 19/02 A2998 RMK A01 T01850017  RH  032%=      5-min Rain = 0
KNH1 191700Z 20011KT 18/02 A2998 RMK A01 T01840017  RH  033%=      5-min Rain = 0
KNH1 191701Z 20010KT 19/02 A2997 RMK A01 T01850017  RH  033%=      5-min Rain = 0
KNH1 191702Z 20011KT 19/02 A2997 RMK A01 T01850018  RH  032%=      5-min Rain = 0
KNH1 191703Z 19011KT 19/02 A2997 RMK A01 T01860018  RH  033%=      5-min Rain = 0
KNH1 191704Z 19011KT 19/02 A2997 RMK A01 T01860018  RH  033%=      5-min Rain = 0
KNH1 191705Z 19011KT 19/02 A2997 RMK A01 T01870020  RH  033%=      5-min Rain = 0
KNH1 191706Z 20010KT 19/02 A2997 RMK A01 T01870021  RH  033%=      5-min Rain = 0
KNH1 191707Z 20009KT 19/02 A2997 RMK A01 T01870019  RH  032%=      5-min Rain = 0
KNH1 191708Z 21011KT 19/02 A2997 RMK A01 T01880019  RH  032%=      5-min Rain = 0
KNH1 191709Z 20010KT 19/02 A2997 RMK A01 T01880020  RH  033%=      5-min Rain = 0
KNH1 191710Z 20011KT 19/02 A2997 RMK A01 T01890022  RH  033%=      5-min Rain = 0
KNH1 191711Z 19012KT 19/02 A2997 RMK A01 T01890020  RH  032%=      5-min Rain = 0
KNH1 191712Z 19011KT 19/02 A2997 RMK A01 T01890020  RH  032%=      5-min Rain = 0
KNH1 191713Z 20010KT 19/02 A2997 RMK A01 T01900021  RH  033%=      5-min Rain = 0
KNH1 191714Z 19012KT 19/02 A2997 RMK A01 T01900021  RH  032%=      5-min Rain = 0
KNH1 191715Z 19012KT 19/02 A2997 RMK A01 T01900021  RH  032%=      5-min Rain = 0
KNH1 191716Z 20011KT 19/02 A2997 RMK A01 T01900022  RH  033%=      5-min Rain = 0
KNH1 191717Z 20009KT 19/02 A2997 RMK A01 T01910019  RH  032%=      5-min Rain = 0
KNH1 191718Z 19008KT 19/02 A2997 RMK A01 T01930024  RH  032%=      5-min Rain = 0
KNH1 191719Z 20010KT 20/02 A2997 RMK A01 T01950023  RH  032%=      5-min Rain = 0
KNH1 191720Z 20013KT 20/02 A2997 RMK A01 T01950019  RH  031%=      5-min Rain = 0
KNH1 191721Z 21012KT 20/02 A2997 RMK A01 T01950019  RH  031%=      5-min Rain = 0
KNH1 191722Z 20011KT 20/02 A2997 RMK A01 T01960021  RH  031%=      5-min Rain = 0
KNH1 191723Z 20013KT 20/02 A2997 RMK A01 T01960021  RH  031%=      5-min Rain = 0
KNH1 191724Z 20014KT 19/02 A2997 RMK A01 T01940017  RH  031%=      5-min Rain = 0
KNH1 191725Z 20012KT 19/02 A2997 RMK A01 T01930018  RH  031%=      5-min Rain = 0
KNH1 191726Z 20011KT 19/02 A2997 RMK A01 T01940020  RH  031%=      5-min Rain = 0
KNH1 191727Z 19012KT 20/02 A2997 RMK A01 T01950021  RH  031%=      5-min Rain = 0
KNH1 191728Z 20013KT 20/02 A2997 RMK A01 T01960022  RH  031%=      5-min Rain = 0
KNH1 191729Z 20012KT 20/02 A2997 RMK A01 T01950023  RH  032%=      5-min Rain = 0
KNH1 191730Z 19012KT 20/02 A2996 RMK A01 T01950022  RH  032%=      5-min Rain = 0
KNH1 191731Z 19009KT 20/02 A2996 RMK A01 T01950023  RH  032%=      5-min Rain = 0
KNH1 191732Z 19011KT 20/03 A2996 RMK A01 T01970025  RH  032%=      5-min Rain = 0
KNH1 191733Z 19011KT 20/03 A2996 RMK A01 T01980025  RH  032%=      5-min Rain = 0
KNH1 191734Z 21012KT 20/02 A2996 RMK A01 T01980024  RH  032%=      5-min Rain = 0
KNH1 191735Z 20014KT 20/02 A2996 RMK A01 T01970021  RH  031%=      5-min Rain = 0
KNH1 191736Z 21014KT 20/02 A2996 RMK A01 T01950019  RH  031%=      5-min Rain = 0
KNH1 191737Z 21013KT 20/02 A2996 RMK A01 T01950018  RH  031%=      5-min Rain = 0
KNH1 191738Z 21013KT 20/02 A2996 RMK A01 T01950020  RH  031%=      5-min Rain = 0
KNH1 191739Z 21013KT 20/02 A2996 RMK A01 T01950021  RH  031%=      5-min Rain = 0
KNH1 191740Z 20011KT 20/02 A2996 RMK A01 T01950021  RH  031%=      5-min Rain = 0
KNH1 191741Z 20011KT 20/02 A2996 RMK A01 T01960024  RH  032%=      5-min Rain = 0
KNH1 191742Z 21012KT 20/02 A2996 RMK A01 T01970023  RH  031%=      5-min Rain = 0
KNH1 191743Z 21011KT 20/02 A2996 RMK A01 T01980023  RH  031%=      5-min Rain = 0
KNH1 191744Z 21012KT 20/03 A2996 RMK A01 T02000025  RH  031%=      5-min Rain = 0
KNH1 191745Z 21012KT 20/03 A2996 RMK A01 T02010025  RH  031%=      5-min Rain = 0
KNH1 191746Z 21014KT 20/02 A2996 RMK A01 T02020023  RH  030%=      5-min Rain = 0
KNH1 191747Z 20013KT 20/02 A2996 RMK A01 T02030021  RH  030%=      5-min Rain = 0
KNH1 191748Z 19012KT 20/02 A2996 RMK A01 T02030022  RH  030%=      5-min Rain = 0
KNH1 191749Z 20014KT 21/02 A2996 RMK A01 T02050021  RH  030%=      5-min Rain = 0
KNH1 191750Z 21013KT 21/02 A2996 RMK A01 T02050018  RH  029%=      5-min Rain = 0
KNH1 191751Z 20012KT 21/02 A2995 RMK A01 T02060017  RH  028%=      5-min Rain = 0
KNH1 191752Z 21014KT 21/02 A2996 RMK A01 T02070017  RH  028%=      5-min Rain = 0
KNH1 191753Z 20012KT 21/02 A2995 RMK A01 T02080019  RH  029%=      5-min Rain = 0
KNH1 191754Z 21012KT 21/02 A2995 RMK A01 T02080019  RH  029%=      5-min Rain = 0
KNH1 191755Z 20011KT 21/02 A2995 RMK A01 T02090020  RH  029%=      5-min Rain = 0
KNH1 191756Z 20014KT 21/02 A2995 RMK A01 T02090021  RH  029%=      5-min Rain = 0
KNH1 191757Z 20011KT 21/02 A2995 RMK A01 T02090020  RH  029%=      5-min Rain = 0
KNH1 191758Z 21012G17KT 21/02 A2995 RMK A01 T02100018  RH  028%=      5-min Rain = 0
KNH1 191759Z 21015KT 21/02 A2995 RMK A01 T02110015  RH  027%=      5-min Rain = 0
KNH1 191800Z 20013KT 21/02 A2995 RMK A01 T02110015  RH  027%=      5-min Rain = 0
KNH1 191801Z 21014KT 21/01 A2995 RMK A01 T02110011  RH  027%=      5-min Rain = 0
KNH1 191802Z 21015KT 21/01 A2995 RMK A01 T02100010  RH  026%=      5-min Rain = 0
KNH1 191803Z 20014KT 21/01 A2995 RMK A01 T02110012  RH  027%=      5-min Rain = 0
KNH1 191804Z 20014KT 21/01 A2995 RMK A01 T02120011  RH  026%=      5-min Rain = 0
KNH1 191805Z 20014KT 21/01 A2995 RMK A01 T02120011  RH  026%=      5-min Rain = 0
KNH1 191806Z 20015KT 21/01 A2995 RMK A01 T02130011  RH  026%=      5-min Rain = 0
KNH1 191807Z 20015KT 21/01 A2995 RMK A01 T02130008  RH  026%=      5-min Rain = 0
KNH1 191808Z 21016KT 21/01 A2994 RMK A01 T02140006  RH  025%=      5-min Rain = 0
KNH1 191809Z 20015KT 22/01 A2994 RMK A01 T02150006  RH  025%=      5-min Rain = 0
KNH1 191810Z 20015KT 22/01 A2994 RMK A01 T02150006  RH  025%=      5-min Rain = 0
KNH1 191811Z 20015KT 22/01 A2994 RMK A01 T02150009  RH  025%=      5-min Rain = 0
KNH1 191812Z 19015KT 22/01 A2994 RMK A01 T02160009  RH  025%=      5-min Rain = 0
KNH1 191813Z 19016KT 22/01 A2994 RMK A01 T02170008  RH  025%=      5-min Rain = 0
KNH1 191814Z 20016KT 22/01 A2994 RMK A01 T02170005  RH  024%=      5-min Rain = 0
KNH1 191815Z 20016KT 22/01 A2994 RMK A01 T02180007  RH  025%=      5-min Rain = 0
KNH1 191816Z 20016KT 22/00 A2994 RMK A01 T02170004  RH  024%=      5-min Rain = 0
KNH1 191817Z 21015KT 22/00 A2994 RMK A01 T02180004  RH  024%=      5-min Rain = 0
KNH1 191818Z 20016KT 22/01 A2994 RMK A01 T02180006  RH  024%=      5-min Rain = 0
KNH1 191819Z 20017KT 22/00 A2994 RMK A01 T02190004  RH  024%=      5-min Rain = 0
KNH1 191820Z 20016KT 22/01 A2994 RMK A01 T02190005  RH  024%=      5-min Rain = 0
KNH1 191821Z 20014KT 22/01 A2994 RMK A01 T02190008  RH  025%=      5-min Rain = 0
KNH1 191822Z 20014KT 22/01 A2994 RMK A01 T02200007  RH  024%=      5-min Rain = 0
KNH1 191823Z 20013KT 22/00 A2994 RMK A01 T02200004  RH  024%=      5-min Rain = 0
KNH1 191824Z 20015KT 22/01 A2994 RMK A01 T02210006  RH  024%=      5-min Rain = 0
KNH1 191825Z 20016KT 22/01 A2994 RMK A01 T02220005  RH  024%=      5-min Rain = 0
KNH1 191826Z 20018KT 22/00 A2994 RMK A01 T02230004  RH  023%=      5-min Rain = 0
KNH1 191827Z 19015KT 22/00 A2993 RMK A01 T02220004  RH  023%=      5-min Rain = 0
KNH1 191828Z 19017KT 22/01 A2993 RMK A01 T02220005  RH  024%=      5-min Rain = 0
KNH1 191829Z 19017KT 22/01 A2993 RMK A01 T02230005  RH  024%=      5-min Rain = 0
KNH1 191830Z 20017KT 22/00 A2993 RMK A01 T02240004  RH  023%=      5-min Rain = 0
KNH1 191831Z 20015KT 22/00 A2993 RMK A01 T02230004  RH  023%=      5-min Rain = 0
KNH1 191832Z 19015KT 22/00 A2993 RMK A01 T02230004  RH  023%=      5-min Rain = 0
KNH1 191833Z 19015KT 22/01 A2993 RMK A01 T02240005  RH  023%=      5-min Rain = 0
KNH1 191834Z 19013KT 23/00 A2993 RMK A01 T02250004  RH  023%=      5-min Rain = 0
KNH1 191835Z 19015KT 23/01 A2993 RMK A01 T02260006  RH  023%=      5-min Rain = 0
KNH1 191836Z 20016KT 23/00 A2993 RMK A01 T02270003  RH  023%=      5-min Rain = 0
KNH1 191837Z 20016KT 23/00 A2993 RMK A01 T02280002  RH  022%=      5-min Rain = 0
KNH1 191838Z 20016KT 23/00 A2993 RMK A01 T02280002  RH  022%=      5-min Rain = 0
KNH1 191839Z 20016KT 23/00 A2993 RMK A01 T02280002  RH  022%=      5-min Rain = 0
KNH1 191840Z 20016KT 23/00 A2993 RMK A01 T02280004  RH  023%=      5-min Rain = 0
KNH1 191841Z 20016KT 23/00 A2993 RMK A01 T02280003  RH  023%=      5-min Rain = 0
KNH1 191842Z 20014KT 23/00 A2993 RMK A01 T02290003  RH  022%=      5-min Rain = 0
KNH1 191843Z 20014KT 23/01 A2992 RMK A01 T02310007  RH  023%=      5-min Rain = 0
KNH1 191844Z 20016KT 23/01 A2993 RMK A01 T02320005  RH  022%=      5-min Rain = 0
KNH1 191845Z 20016KT 23/00 A2992 RMK A01 T02310004  RH  022%=      5-min Rain = 0
KNH1 191846Z 20014KT 23/01 A2992 RMK A01 T02300005  RH  023%=      5-min Rain = 0
KNH1 191847Z 20015KT 23/01 A2992 RMK A01 T02300005  RH  022%=      5-min Rain = 0
KNH1 191848Z 20016KT 23/01 A2992 RMK A01 T02310005  RH  022%=      5-min Rain = 0
KNH1 191849Z 20015KT 23/01 A2992 RMK A01 T02310006  RH  023%=      5-min Rain = 0
KNH1 191850Z 20015KT 23/01 A2992 RMK A01 T02310005  RH  023%=      5-min Rain = 0
KNH1 191851Z 20015KT 23/01 A2992 RMK A01 T02310006  RH  023%=      5-min Rain = 0
KNH1 191852Z 19014KT 23/01 A2992 RMK A01 T02320007  RH  023%=      5-min Rain = 0
KNH1 191853Z 21015KT 23/01 A2992 RMK A01 T02320006  RH  022%=      5-min Rain = 0
KNH1 191854Z 21016KT 23/01 A2992 RMK A01 T02320006  RH  022%=      5-min Rain = 0
KNH1 191855Z 20014KT 23/01 A2992 RMK A01 T02330005  RH  022%=      5-min Rain = 0
KNH1 191856Z 20013KT 23/01 A2992 RMK A01 T02340007  RH  022%=      5-min Rain = 0
KNH1 191857Z 20012KT 24/01 A2992 RMK A01 T02360009  RH  022%=      5-min Rain = 0
KNH1 191858Z 20014KT 24/01 A2992 RMK A01 T02390010  RH  022%=      5-min Rain = 0
KNH1 191859Z 20015G21KT 24/01 A2991 RMK A01 T02390008  RH  022%=      5-min Rain = 0
KNH1 191900Z 20016KT 24/01 A2992 RMK A01 T02380006  RH  022%=      5-min Rain = 0
KNH1 191901Z 20015KT 24/01 A2992 RMK A01 T02360006  RH  022%=      5-min Rain = 0
KNH1 191902Z 19015KT 24/01 A2992 RMK A01 T02350007  RH  022%=      5-min Rain = 0
KNH1 191903Z 19017KT 23/01 A2992 RMK A01 T02340005  RH  022%=      5-min Rain = 0
KNH1 191904Z 19016KT 23/00 A2991 RMK A01 T02340003  RH  022%=      5-min Rain = 0
KNH1 191905Z 19015KT 23/01 A2991 RMK A01 T02340005  RH  022%=      5-min Rain = 0
KNH1 191906Z 19015KT 23/01 A2991 RMK A01 T02340006  RH  022%=      5-min Rain = 0
KNH1 191907Z 19014KT 23/01 A2991 RMK A01 T02340006  RH  022%=      5-min Rain = 0
KNH1 191908Z 20013KT 24/01 A2991 RMK A01 T02350007  RH  022%=      5-min Rain = 0
KNH1 191909Z 21015KT 24/01 A2991 RMK A01 T02360006  RH  022%=      5-min Rain = 0
KNH1 191910Z 21015KT 24/01 A2991 RMK A01 T02360007  RH  022%=      5-min Rain = 0
KNH1 191911Z 20013KT 24/01 A2991 RMK A01 T02360006  RH  022%=      5-min Rain = 0
KNH1 191912Z 20015KT 24/01 A2991 RMK A01 T02370006  RH  022%=      5-min Rain = 0
KNH1 191913Z 19013KT 24/01 A2991 RMK A01 T02360007  RH  022%=      5-min Rain = 0
KNH1 191914Z 19015G20KT 24/01 A2991 RMK A01 T02370009  RH  022%=      5-min Rain = 0
KNH1 191915Z 20014KT 24/01 A2991 RMK A01 T02380005  RH  021%=      5-min Rain = 0
KNH1 191916Z 22017KT 24/00 A2991 RMK A01 T02380002  RH  021%=      5-min Rain = 0
KNH1 191917Z 20016KT 24/00 A2991 RMK A01 T02380003  RH  021%=      5-min Rain = 0
KNH1 191918Z 20016KT 24/01 A2991 RMK A01 T02370005  RH  022%=      5-min Rain = 0
KNH1 191919Z 20014KT 24/01 A2991 RMK A01 T02370006  RH  022%=      5-min Rain = 0
KNH1 191920Z 20013KT 24/01 A2991 RMK A01 T02390005  RH  021%=      5-min Rain = 0
KNH1 191921Z 20012KT 24/01 A299 RMK A01 T02410007  RH  021%=      5-min Rain = 0
KNH1 191922Z 21013KT 24/00 A299 RMK A01 T02420004  RH  021%=      5-min Rain = 0
KNH1 191923Z 22016KT 24/00 A299 RMK A01 T02430001  RH  020%=      5-min Rain = 0
KNH1 191924Z 21014G19KT 24/M00 A299 RMK A01 T02421001  RH  020%=      5-min Rain = 0
KNH1 191925Z 21017KT 24/00 A299 RMK A01 T02420000  RH  020%=      5-min Rain = 0
KNH1 191926Z 21018KT 24/M00 A299 RMK A01 T02421003  RH  020%=      5-min Rain = 0
KNH1 191927Z 21017KT 24/M00 A299 RMK A01 T02421002  RH  020%=      5-min Rain = 0
KNH1 191928Z 21015KT 24/M00 A299 RMK A01 T02411001  RH  020%=      5-min Rain = 0
KNH1 191929Z 21015KT 24/00 A299 RMK A01 T02410000  RH  020%=      5-min Rain = 0
KNH1 191930Z 21013G18KT 24/00 A299 RMK A01 T02410001  RH  021%=      5-min Rain = 0
KNH1 191931Z 19015KT 24/00 A299 RMK A01 T02420004  RH  021%=      5-min Rain = 0
KNH1 191932Z 19014KT 24/01 A299 RMK A01 T02420005  RH  021%=      5-min Rain = 0
KNH1 191933Z 21016KT 24/00 A299 RMK A01 T02420004  RH  021%=      5-min Rain = 0
KNH1 191934Z 19016KT 24/00 A299 RMK A01 T02430001  RH  020%=      5-min Rain = 0
KNH1 191935Z 20013KT 24/00 A299 RMK A01 T02430001  RH  020%=      5-min Rain = 0
KNH1 191936Z 20012KT 24/00 A299 RMK A01 T024300-0  RH  020%=      5-min Rain = 0
KNH1 191937Z 20017KT 24/00 A299 RMK A01 T02420001  RH  020%=      5-min Rain = 0
KNH1 191938Z 19014KT 24/00 A299 RMK A01 T02410004  RH  021%=      5-min Rain = 0
KNH1 191939Z 19011KT 24/01 A299 RMK A01 T02430006  RH  021%=      5-min Rain = 0
KNH1 191940Z 19013KT 25/01 A299 RMK A01 T02450006  RH  021%=      5-min Rain = 0
KNH1 191941Z 19015KT 25/01 A299 RMK A01 T02450006  RH  021%=      5-min Rain = 0
KNH1 191942Z 19014KT 24/00 A2989 RMK A01 T02420002  RH  021%=      5-min Rain = 0
KNH1 191943Z 20013KT 24/00 A2989 RMK A01 T02380004  RH  021%=      5-min Rain = 0
KNH1 191944Z 20013G18KT 24/00 A2989 RMK A01 T02380004  RH  021%=      5-min Rain = 0
KNH1 191945Z 20016KT 24/01 A2989 RMK A01 T02390005  RH  022%=      5-min Rain = 0
KNH1 191946Z 20015KT 24/01 A2989 RMK A01 T02380005  RH  022%=      5-min Rain = 0
KNH1 191947Z 20017KT 24/01 A2989 RMK A01 T02380006  RH  022%=      5-min Rain = 0
KNH1 191948Z 20014KT 24/01 A2989 RMK A01 T02370006  RH  022%=      5-min Rain = 0
KNH1 191949Z 21014KT 24/00 A2989 RMK A01 T02370004  RH  021%=      5-min Rain = 0
KNH1 191950Z 20014KT 24/00 A2989 RMK A01 T02360004  RH  022%=      5-min Rain = 0
KNH1 191951Z 19015KT 24/01 A2989 RMK A01 T02360005  RH  022%=      5-min Rain = 0
KNH1 191952Z 20013KT 24/01 A2989 RMK A01 T02360006  RH  022%=      5-min Rain = 0
KNH1 191953Z 20014KT 24/01 A2989 RMK A01 T02370006  RH  022%=      5-min Rain = 0
KNH1 191954Z 19014KT 24/01 A2989 RMK A01 T02370009  RH  022%=      5-min Rain = 0
KNH1 191955Z 19014KT 24/01 A2989 RMK A01 T02370010  RH  022%=      5-min Rain = 0
KNH1 191956Z 19015KT 24/01 A2988 RMK A01 T02380011  RH  023%=      5-min Rain = 0
KNH1 191957Z 19017KT 24/01 A2988 RMK A01 T02390010  RH  022%=      5-min Rain = 0
KNH1 191958Z 20016KT 24/01 A2988 RMK A01 T02400008  RH  022%=      5-min Rain = 0
KNH1 191959Z 21016KT 24/01 A2988 RMK A01 T02380006  RH  022%=      5-min Rain = 0
KNH1 192000Z 20014KT 24/01 A2988 RMK A01 T02360007  RH  022%=      5-min Rain = 0
KNH1 192001Z 19012KT 24/01 A2988 RMK A01 T02360008  RH  022%=      5-min Rain = 0
KNH1 192002Z 19011KT 24/01 A2988 RMK A01 T02350010  RH  023%=      5-min Rain = 0
KNH1 192003Z 19012KT 24/01 A2988 RMK A01 T02360009  RH  022%=      5-min Rain = 0
KNH1 192004Z 20012KT 24/01 A2988 RMK A01 T02360009  RH  022%=      5-min Rain = 0
KNH1 192005Z 19012KT 24/01 A2988 RMK A01 T02360007  RH  022%=      5-min Rain = 0
KNH1 192006Z 19010KT 24/01 A2988 RMK A01 T02360008  RH  022%=      5-min Rain = 0
KNH1 192007Z 19012KT 24/01 A2988 RMK A01 T02360009  RH  022%=      5-min Rain = 0
KNH1 192008Z 21013KT 24/01 A2988 RMK A01 T02380005  RH  021%=      5-min Rain = 0
KNH1 192009Z 20011KT 24/00 A2987 RMK A01 T02380003  RH  021%=      5-min Rain = 0
KNH1 192010Z 20010KT 24/01 A2987 RMK A01 T02390006  RH  022%=      5-min Rain = 0
KNH1 192011Z 20011KT 24/01 A2987 RMK A01 T02400006  RH  021%=      5-min Rain = 0
KNH1 192012Z 20010KT 24/01 A2987 RMK A01 T02400006  RH  021%=      5-min Rain = 0
KNH1 192013Z 20010KT 24/01 A2987 RMK A01 T02410006  RH  021%=      5-min Rain = 0
KNH1 192014Z 19012KT 24/01 A2987 RMK A01 T02430008  RH  021%=      5-min Rain = 0
KNH1 192015Z 19013KT 24/00 A2987 RMK A01 T02440004  RH  021%=      5-min Rain = 0
KNH1 192016Z 19011KT 24/00 A2987 RMK A01 T02430004  RH  021%=      5-min Rain = 0
KNH1 192017Z 18012KT 24/01 A2987 RMK A01 T02430006  RH  021%=      5-min Rain = 0
KNH1 192018Z 19011KT 24/01 A2987 RMK A01 T02430005  RH  021%=      5-min Rain = 0
KNH1 192019Z 19011KT 24/00 A2987 RMK A01 T02430004  RH  021%=      5-min Rain = 0
KNH1 192020Z 19012KT 24/00 A2987 RMK A01 T02440001  RH  020%=      5-min Rain = 0
KNH1 192021Z 19012KT 25/00 A2987 RMK A01 T02450000  RH  020%=      5-min Rain = 0
KNH1 192022Z 20015KT 25/00 A2987 RMK A01 T02470001  RH  020%=      5-min Rain = 0
KNH1 192023Z 20013KT 25/M00 A2987 RMK A01 T02481002  RH  019%=      5-min Rain = 0
KNH1 192024Z 20015KT 25/M00 A2986 RMK A01 T02491002  RH  019%=      5-min Rain = 0
KNH1 192025Z 19013KT 25/00 A2986 RMK A01 T02490000  RH  019%=      5-min Rain = 0
KNH1 192026Z 20015KT 25/M00 A2986 RMK A01 T02501001  RH  019%=      5-min Rain = 0
KNH1 192027Z 21012KT 25/M00 A2986 RMK A01 T02511002  RH  019%=      5-min Rain = 0
KNH1 192028Z 21015KT 25/M00 A2986 RMK A01 T02531002  RH  019%=      5-min Rain = 0
KNH1 192029Z 20012KT 25/M00 A2986 RMK A01 T02541002  RH  019%=      5-min Rain = 0
KNH1 192030Z 20012KT 25/00 A2986 RMK A01 T02540000  RH  019%=      5-min Rain = 0
KNH1 192031Z 19009KT 25/00 A2986 RMK A01 T02540001  RH  019%=      5-min Rain = 0
KNH1 192032Z 20012G17KT 26/00 A2986 RMK A01 T02550003  RH  019%=      5-min Rain = 0
KNH1 192033Z 21015KT 26/M00 A2986 RMK A01 T02561002  RH  018%=      5-min Rain = 0
KNH1 192034Z 20016KT 26/M00 A2986 RMK A01 T02561004  RH  018%=      5-min Rain = 0
KNH1 192035Z 20014KT 26/M01 A2986 RMK A01 T02551005  RH  018%=      5-min Rain = 0
KNH1 192036Z 21013KT 25/M00 A2986 RMK A01 T02541003  RH  018%=      5-min Rain = 0
KNH1 192037Z 21015KT 25/M00 A2986 RMK A01 T02541004  RH  018%=      5-min Rain = 0
KNH1 192038Z 20013KT 25/M00 A2986 RMK A01 T02541004  RH  018%=      5-min Rain = 0
KNH1 192039Z 20013KT 25/M00 A2986 RMK A01 T02541004  RH  018%=      5-min Rain = 0
KNH1 192040Z 20012KT 25/M01 A2986 RMK A01 T02531005  RH  018%=      5-min Rain = 0
KNH1 192041Z 20011KT 25/M00 A2986 RMK A01 T02531004  RH  018%=      5-min Rain = 0
KNH1 192042Z 20013KT 25/M00 A2986 RMK A01 T02531002  RH  019%=      5-min Rain = 0
KNH1 192043Z 21015KT 25/M00 A2986 RMK A01 T02541002  RH  019%=      5-min Rain = 0
KNH1 192044Z 21017KT 25/M01 A2986 RMK A01 T02541005  RH  018%=      5-min Rain = 0
KNH1 192045Z 21015KT 25/M01 A2986 RMK A01 T02531006  RH  018%=      5-min Rain = 0
KNH1 192046Z 22013KT 25/M01 A2986 RMK A01 T02531006  RH  018%=      5-min Rain = 0
KNH1 192047Z 21015KT 25/M01 A2986 RMK A01 T02531006  RH  018%=      5-min Rain = 0
KNH1 192048Z 21016KT 25/M01 A2986 RMK A01 T02541007  RH  018%=      5-min Rain = 0
KNH1 192049Z 21013KT 25/M01 A2986 RMK A01 T02531006  RH  018%=      5-min Rain = 0
KNH1 192050Z 21015KT 25/M01 A2986 RMK A01 T02531005  RH  018%=      5-min Rain = 0
KNH1 192051Z 21013KT 25/M01 A2986 RMK A01 T02521007  RH  018%=      5-min Rain = 0
KNH1 192052Z 21013KT 25/M01 A2986 RMK A01 T02511006  RH  018%=      5-min Rain = 0
KNH1 192053Z 20012KT 25/M01 A2985 RMK A01 T02511008  RH  018%=      5-min Rain = 0
KNH1 192054Z 20012KT 25/M01 A2986 RMK A01 T02521006  RH  018%=      5-min Rain = 0
KNH1 192055Z 20012KT 25/M01 A2986 RMK A01 T02531005  RH  018%=      5-min Rain = 0
KNH1 192056Z 20013KT 25/M00 A2986 RMK A01 T02541004  RH  018%=      5-min Rain = 0
KNH1 192057Z 21013KT 25/M00 A2986 RMK A01 T02541003  RH  018%=      5-min Rain = 0
KNH1 192058Z 20014G19KT 26/M00 A2986 RMK A01 T02551003  RH  018%=      5-min Rain = 0
KNH1 192059Z 20015KT 26/M00 A2985 RMK A01 T02551004  RH  018%=      5-min Rain = 0
KNH1 192100Z 20014KT 25/M01 A2985 RMK A01 T02541006  RH  018%=      5-min Rain = 0
KNH1 192101Z 20015KT 25/M01 A2985 RMK A01 T02531006  RH  018%=      5-min Rain = 0
KNH1 192102Z 20014KT 25/M01 A2985 RMK A01 T02521005  RH  018%=      5-min Rain = 0
KNH1 192103Z 19013KT 25/M00 A2985 RMK A01 T02531003  RH  019%=      5-min Rain = 0
KNH1 192104Z 19013KT 25/M00 A2985 RMK A01 T02541004  RH  018%=      5-min Rain = 0
KNH1 192105Z 20011KT 25/M00 A2985 RMK A01 T02531001  RH  019%=      5-min Rain = 0
KNH1 192106Z 21011KT 25/M00 A2985 RMK A01 T02531001  RH  019%=      5-min Rain = 0
KNH1 192107Z 21014KT 25/M00 A2985 RMK A01 T02531001  RH  019%=      5-min Rain = 0
KNH1 192108Z 21015KT 25/M01 A2985 RMK A01 T02531005  RH  018%=      5-min Rain = 0
KNH1 192109Z 21014KT 25/M01 A2985 RMK A01 T02511008  RH  018%=      5-min Rain = 0
KNH1 192110Z 21013KT 25/M01 A2985 RMK A01 T02491007  RH  018%=      5-min Rain = 0
KNH1 192111Z 21013KT 25/M01 A2985 RMK A01 T02471006  RH  019%=      5-min Rain = 0
KNH1 192112Z 21015KT 25/M01 A2985 RMK A01 T02471006  RH  019%=      5-min Rain = 0
KNH1 192113Z 20014KT 25/M01 A2985 RMK A01 T02461006  RH  019%=      5-min Rain = 0
KNH1 192114Z 21014KT 25/M01 A2985 RMK A01 T02461006  RH  019%=      5-min Rain = 0
KNH1 192115Z 21012KT 25/M01 A2985 RMK A01 T02461007  RH  019%=      5-min Rain = 0
KNH1 192116Z 20011KT 25/M01 A2985 RMK A01 T02461006  RH  019%=      5-min Rain = 0
KNH1 192117Z 21010KT 25/M01 A2985 RMK A01 T02471005  RH  019%=      5-min Rain = 0
KNH1 192118Z 20011KT 25/M01 A2985 RMK A01 T02471006  RH  019%=      5-min Rain = 0
KNH1 192119Z 21010KT 25/M00 A2985 RMK A01 T02491004  RH  019%=      5-min Rain = 0
KNH1 192120Z 20011KT 25/M00 A2985 RMK A01 T02501002  RH  019%=      5-min Rain = 0
KNH1 192121Z 21013KT 25/M00 A2985 RMK A01 T02511004  RH  019%=      5-min Rain = 0
KNH1 192122Z 21011KT 25/M00 A2985 RMK A01 T02521004  RH  019%=      5-min Rain = 0
KNH1 192123Z 21011KT 25/M00 A2985 RMK A01 T02531003  RH  019%=      5-min Rain = 0
KNH1 192124Z 20013KT 25/M00 A2985 RMK A01 T02541003  RH  018%=      5-min Rain = 0
KNH1 192125Z 21012KT 25/M01 A2985 RMK A01 T02521008  RH  018%=      5-min Rain = 0
KNH1 192126Z 22015KT 25/M01 A2985 RMK A01 T02511006  RH  018%=      5-min Rain = 0
KNH1 192127Z 21014KT 25/M01 A2985 RMK A01 T02491009  RH  018%=      5-min Rain = 0
KNH1 192128Z 20013KT 25/M01 A2985 RMK A01 T02471008  RH  018%=      5-min Rain = 0
KNH1 192129Z 19013KT 25/M01 A2985 RMK A01 T02461008  RH  019%=      5-min Rain = 0
KNH1 192130Z 20015KT 25/M01 A2985 RMK A01 T02461006  RH  019%=      5-min Rain = 0
KNH1 192131Z 20015KT 25/M01 A2985 RMK A01 T02461009  RH  019%=      5-min Rain = 0
KNH1 192132Z 20012KT 25/M01 A2985 RMK A01 T02451009  RH  019%=      5-min Rain = 0
KNH1 192133Z 19013KT 25/M01 A2985 RMK A01 T02451009  RH  019%=      5-min Rain = 0
KNH1 192134Z 19013KT 25/M01 A2984 RMK A01 T02451009  RH  019%=      5-min Rain = 0
KNH1 192135Z 19012KT 25/M01 A2984 RMK A01 T02451007  RH  019%=      5-min Rain = 0
KNH1 192136Z 19012KT 25/M01 A2984 RMK A01 T02461006  RH  019%=      5-min Rain = 0
KNH1 192137Z 19010KT 25/M01 A2984 RMK A01 T02471007  RH  019%=      5-min Rain = 0
KNH1 192138Z 19011KT 25/M01 A2984 RMK A01 T02481007  RH  019%=      5-min Rain = 0
KNH1 192139Z 19010KT 25/M00 A2984 RMK A01 T02501004  RH  019%=      5-min Rain = 0
KNH1 192140Z 20012KT 25/M00 A2984 RMK A01 T02511003  RH  019%=      5-min Rain = 0
KNH1 192141Z 20011KT 25/M01 A2984 RMK A01 T02521007  RH  018%=      5-min Rain = 0
KNH1 192142Z 21010KT 25/M01 A2984 RMK A01 T02541007  RH  018%=      5-min Rain = 0
KNH1 192143Z 21013KT 26/M01 A2984 RMK A01 T02551008  RH  018%=      5-min Rain = 0
KNH1 192144Z 22012KT 26/M01 A2984 RMK A01 T02561010  RH  017%=      5-min Rain = 0
KNH1 192145Z 21013KT 26/M01 A2984 RMK A01 T02561012  RH  017%=      5-min Rain = 0
KNH1 192146Z 22014KT 26/M01 A2984 RMK A01 T02551012  RH  017%=      5-min Rain = 0
KNH1 192147Z 21015KT 25/M02 A2984 RMK A01 T02531016  RH  017%=      5-min Rain = 0
KNH1 192148Z 20012KT 25/M02 A2984 RMK A01 T02521015  RH  017%=      5-min Rain = 0
KNH1 192149Z 20014KT 25/M02 A2984 RMK A01 T02521015  RH  017%=      5-min Rain = 0
KNH1 192150Z 20012KT 25/M01 A2984 RMK A01 T02521014  RH  017%=      5-min Rain = 0
KNH1 192151Z 20013KT 25/M01 A2984 RMK A01 T02531014  RH  017%=      5-min Rain = 0
KNH1 192152Z 21012KT 25/M02 A2984 RMK A01 T02531015  RH  017%=      5-min Rain = 0
KNH1 192153Z 20011KT 25/M02 A2984 RMK A01 T02531015  RH  017%=      5-min Rain = 0
KNH1 192154Z 20011KT 25/M01 A2984 RMK A01 T02531014  RH  017%=      5-min Rain = 0
KNH1 192155Z 19014KT 25/M01 A2984 RMK A01 T02531014  RH  017%=      5-min Rain = 0
KNH1 192156Z 20016KT 25/M02 A2984 RMK A01 T02531016  RH  017%=      5-min Rain = 0
KNH1 192157Z 20014KT 25/M02 A2984 RMK A01 T02531017  RH  017%=      5-min Rain = 0
KNH1 192158Z 19015KT 25/M02 A2984 RMK A01 T02531016  RH  017%=      5-min Rain = 0
KNH1 192159Z 19017KT 25/M02 A2984 RMK A01 T02531015  RH  017%=      5-min Rain = 0
KNH1 192200Z 19015KT 25/M02 A2984 RMK A01 T02521016  RH  017%=      5-min Rain = 0
KNH1 192201Z 21011KT 25/M02 A2984 RMK A01 T02511015  RH  017%=      5-min Rain = 0
KNH1 192202Z 21012KT 25/M01 A2984 RMK A01 T02511013  RH  017%=      5-min Rain = 0
KNH1 192203Z 21014KT 25/M01 A2984 RMK A01 T02501014  RH  017%=      5-min Rain = 0
KNH1 192204Z 21016KT 25/M02 A2984 RMK A01 T02481017  RH  017%=      5-min Rain = 0
KNH1 192205Z 21012KT 25/M02 A2984 RMK A01 T02471017  RH  017%=      5-min Rain = 0
KNH1 192206Z 20014KT 25/M02 A2984 RMK A01 T02451016  RH  018%=      5-min Rain = 0
KNH1 192207Z 20016KT 25/M02 A2984 RMK A01 T02451017  RH  018%=      5-min Rain = 0
KNH1 192208Z 20013G18KT 25/M02 A2984 RMK A01 T02451016  RH  018%=      5-min Rain = 0
KNH1 192209Z 20014KT 24/M02 A2984 RMK A01 T02441016  RH  018%=      5-min Rain = 0
KNH1 192210Z 20013KT 24/M02 A2984 RMK A01 T02421016  RH  018%=      5-min Rain = 0
KNH1 192211Z 20014KT 24/M02 A2984 RMK A01 T02411017  RH  018%=      5-min Rain = 0
KNH1 192212Z 20015KT 24/M02 A2984 RMK A01 T02401016  RH  018%=      5-min Rain = 0
KNH1 192213Z 19014KT 24/M02 A2984 RMK A01 T02391017  RH  018%=      5-min Rain = 0
KNH1 192214Z 19013KT 24/M02 A2984 RMK A01 T02391016  RH  018%=      5-min Rain = 0
KNH1 192215Z 19015KT 24/M02 A2984 RMK A01 T02391016  RH  018%=      5-min Rain = 0
KNH1 192216Z 20012KT 24/M02 A2984 RMK A01 T02381015  RH  019%=      5-min Rain = 0
KNH1 192217Z 21014KT 24/M02 A2984 RMK A01 T02371015  RH  019%=      5-min Rain = 0
KNH1 192218Z 20011KT 24/M02 A2984 RMK A01 T02371016  RH  019%=      5-min Rain = 0
KNH1 192219Z 20012KT 24/M02 A2984 RMK A01 T02361015  RH  019%=      5-min Rain = 0
KNH1 192220Z 20010KT 24/M01 A2984 RMK A01 T02351014  RH  019%=      5-min Rain = 0
KNH1 192221Z 20009KT 23/M01 A2984 RMK A01 T02341013  RH  019%=      5-min Rain = 0
KNH1 192222Z 19009KT 23/M01 A2984 RMK A01 T02331011  RH  020%=      5-min Rain = 0
KNH1 192223Z 19009KT 23/M01 A2984 RMK A01 T02321010  RH  020%=      5-min Rain = 0
KNH1 192224Z 20009KT 23/M01 A2984 RMK A01 T02311010  RH  020%=      5-min Rain = 0
KNH1 192225Z 20011KT 23/M01 A2984 RMK A01 T02311011  RH  020%=      5-min Rain = 0
KNH1 192226Z 20012KT 23/M01 A2984 RMK A01 T02311013  RH  020%=      5-min Rain = 0
KNH1 192227Z 20011KT 23/M01 A2984 RMK A01 T02311013  RH  020%=      5-min Rain = 0
KNH1 192228Z 20011KT 23/M01 A2984 RMK A01 T02321012  RH  020%=      5-min Rain = 0
KNH1 192229Z 20010KT 23/M01 A2984 RMK A01 T02311011  RH  020%=      5-min Rain = 0
KNH1 192230Z 20010KT 23/M01 A2984 RMK A01 T02311011  RH  020%=      5-min Rain = 0
KNH1 192231Z 19010KT 23/M01 A2984 RMK A01 T02311010  RH  020%=      5-min Rain = 0
KNH1 192232Z 19010KT 23/M01 A2984 RMK A01 T02311009  RH  020%=      5-min Rain = 0
KNH1 192233Z 20009KT 23/M01 A2984 RMK A01 T02301009  RH  020%=      5-min Rain = 0
KNH1 192234Z 20009KT 23/M01 A2984 RMK A01 T02301008  RH  020%=      5-min Rain = 0
KNH1 192235Z 19010KT 23/M01 A2984 RMK A01 T02311007  RH  021%=      5-min Rain = 0
KNH1 192236Z 19010KT 23/M01 A2984 RMK A01 T02311006  RH  021%=      5-min Rain = 0
KNH1 192237Z 19011KT 23/M01 A2984 RMK A01 T02321006  RH  021%=      5-min Rain = 0
KNH1 192238Z 19010KT 23/M01 A2984 RMK A01 T02341005  RH  021%=      5-min Rain = 0
KNH1 192239Z 19011KT 24/M00 A2984 RMK A01 T02351004  RH  020%=      5-min Rain = 0
KNH1 192240Z 19011KT 24/M00 A2984 RMK A01 T02361004  RH  020%=      5-min Rain = 0
KNH1 192241Z 19011KT 24/M00 A2984 RMK A01 T02361002  RH  021%=      5-min Rain = 0
KNH1 192242Z 19010KT 24/M00 A2984 RMK A01 T02361003  RH  021%=      5-min Rain = 0
KNH1 192243Z 19009KT 24/M00 A2984 RMK A01 T02371002  RH  021%=      5-min Rain = 0
KNH1 192244Z 19009KT 24/M00 A2984 RMK A01 T02371001  RH  021%=      5-min Rain = 0
KNH1 192245Z 19008KT 24/00 A2984 RMK A01 T023800-0  RH  021%=      5-min Rain = 0
KNH1 192246Z 19010KT 24/00 A2984 RMK A01 T02380001  RH  021%=      5-min Rain = 0
KNH1 192247Z 19010KT 24/00 A2984 RMK A01 T02380000  RH  021%=      5-min Rain = 0
KNH1 192248Z 18009KT 24/00 A2984 RMK A01 T02380002  RH  021%=      5-min Rain = 0
KNH1 192249Z 19009KT 24/00 A2984 RMK A01 T02380003  RH  021%=      5-min Rain = 0
KNH1 192250Z 19009KT 24/00 A2984 RMK A01 T02380004  RH  021%=      5-min Rain = 0
KNH1 192251Z 19010KT 24/01 A2984 RMK A01 T02370005  RH  022%=      5-min Rain = 0
KNH1 192252Z 19009KT 24/01 A2984 RMK A01 T02370005  RH  022%=      5-min Rain = 0
KNH1 192253Z 18008KT 24/01 A2984 RMK A01 T02360006  RH  022%=      5-min Rain = 0
KNH1 192254Z 18009KT 24/01 A2984 RMK A01 T02350006  RH  022%=      5-min Rain = 0
KNH1 192255Z 18009KT 23/01 A2984 RMK A01 T02340005  RH  022%=      5-min Rain = 0
KNH1 192256Z 18009KT 23/01 A2984 RMK A01 T02330006  RH  022%=      5-min Rain = 0
KNH1 192257Z 18009KT 23/00 A2984 RMK A01 T02320004  RH  022%=      5-min Rain = 0
KNH1 192258Z 18011KT 23/00 A2984 RMK A01 T02320003  RH  022%=      5-min Rain = 0
KNH1 192259Z 19010KT 23/00 A2984 RMK A01 T02310003  RH  022%=      5-min Rain = 0
KNH1 192300Z 19009KT 23/00 A2984 RMK A01 T02310003  RH  022%=      5-min Rain = 0
KNH1 192301Z 19009KT 23/00 A2984 RMK A01 T02300004  RH  022%=      5-min Rain = 0
KNH1 192302Z 19009KT 23/01 A2984 RMK A01 T02290005  RH  023%=      5-min Rain = 0
KNH1 192303Z 19010KT 23/00 A2984 RMK A01 T02280004  RH  023%=      5-min Rain = 0
KNH1 192304Z 19009KT 23/00 A2984 RMK A01 T02280004  RH  023%=      5-min Rain = 0
KNH1 192305Z 19008KT 23/00 A2984 RMK A01 T02280003  RH  023%=      5-min Rain = 0
KNH1 192306Z 19008KT 23/00 A2984 RMK A01 T02270004  RH  023%=      5-min Rain = 0
KNH1 192307Z 19010KT 23/00 A2984 RMK A01 T02250000  RH  022%=      5-min Rain = 0
KNH1 192308Z 19011KT 23/M00 A2984 RMK A01 T02251002  RH  022%=      5-min Rain = 0
KNH1 192309Z 19010KT 23/M00 A2984 RMK A01 T02251003  RH  022%=      5-min Rain = 0
KNH1 192310Z 19009KT 23/M00 A2984 RMK A01 T02251003  RH  022%=      5-min Rain = 0
KNH1 192311Z 19009KT 22/M00 A2984 RMK A01 T02241003  RH  022%=      5-min Rain = 0
KNH1 192312Z 19008KT 22/M00 A2984 RMK A01 T02241003  RH  022%=      5-min Rain = 0
KNH1 192313Z 19007KT 22/M00 A2984 RMK A01 T02231001  RH  022%=      5-min Rain = 0
KNH1 192314Z 19008KT 22/M00 A2984 RMK A01 T02221001  RH  023%=      5-min Rain = 0
KNH1 192315Z 19009KT 22/M00 A2984 RMK A01 T02211001  RH  023%=      5-min Rain = 0
KNH1 192316Z 19008KT 22/M00 A2984 RMK A01 T02201001  RH  023%=      5-min Rain = 0
KNH1 192317Z 18008KT 22/00 A2984 RMK A01 T02190001  RH  023%=      5-min Rain = 0
KNH1 192318Z 18008KT 22/00 A2984 RMK A01 T02170001  RH  024%=      5-min Rain = 0
KNH1 192319Z 18008KT 22/00 A2984 RMK A01 T02150002  RH  024%=      5-min Rain = 0
KNH1 192320Z 19008KT 21/00 A2984 RMK A01 T02130001  RH  024%=      5-min Rain = 0
KNH1 192321Z 18008KT 21/00 A2984 RMK A01 T02120001  RH  024%=      5-min Rain = 0
KNH1 192322Z 18008KT 21/00 A2984 RMK A01 T02120002  RH  025%=      5-min Rain = 0
KNH1 192323Z 18008KT 21/00 A2984 RMK A01 T02110002  RH  025%=      5-min Rain = 0
KNH1 192324Z 18007KT 21/00 A2984 RMK A01 T02110003  RH  025%=      5-min Rain = 0
KNH1 192325Z 18008KT 21/00 A2984 RMK A01 T02110004  RH  025%=      5-min Rain = 0
KNH1 192326Z 18007KT 21/01 A2984 RMK A01 T02100005  RH  025%=      5-min Rain = 0
KNH1 192327Z 18007KT 21/01 A2984 RMK A01 T02100006  RH  026%=      5-min Rain = 0
KNH1 192328Z 18007KT 21/01 A2984 RMK A01 T02090006  RH  026%=      5-min Rain = 0
KNH1 192329Z 18007KT 21/01 A2984 RMK A01 T02080007  RH  026%=      5-min Rain = 0
KNH1 192330Z 18007KT 21/01 A2984 RMK A01 T02060007  RH  026%=      5-min Rain = 0
KNH1 192331Z 18007KT 21/01 A2984 RMK A01 T02060007  RH  027%=      5-min Rain = 0
KNH1 192332Z 18007KT 21/01 A2984 RMK A01 T02050007  RH  027%=      5-min Rain = 0
KNH1 192333Z 18007KT 20/01 A2984 RMK A01 T02040008  RH  027%=      5-min Rain = 0
KNH1 192334Z 18006KT 20/01 A2984 RMK A01 T02030008  RH  027%=      5-min Rain = 0
KNH1 192335Z 18007KT 20/01 A2984 RMK A01 T02020009  RH  028%=      5-min Rain = 0
KNH1 192336Z 18006KT 20/01 A2984 RMK A01 T02000008  RH  028%=      5-min Rain = 0
KNH1 192337Z 18006KT 20/01 A2984 RMK A01 T01990006  RH  027%=      5-min Rain = 0
KNH1 192338Z 18006KT 20/01 A2984 RMK A01 T01990007  RH  028%=      5-min Rain = 0
KNH1 192339Z 18006KT 20/01 A2984 RMK A01 T01990009  RH  028%=      5-min Rain = 0
KNH1 192340Z 18007KT 20/01 A2984 RMK A01 T01980011  RH  029%=      5-min Rain = 0
KNH1 192341Z 18006KT 20/01 A2984 RMK A01 T01970011  RH  029%=      5-min Rain = 0
KNH1 192342Z 18008KT 20/01 A2984 RMK A01 T01970010  RH  029%=      5-min Rain = 0
KNH1 192343Z 18008KT 20/01 A2984 RMK A01 T01970010  RH  029%=      5-min Rain = 0
KNH1 192344Z 18007KT 20/01 A2984 RMK A01 T01960011  RH  029%=      5-min Rain = 0
KNH1 192345Z 18007KT 20/01 A2984 RMK A01 T01960011  RH  029%=      5-min Rain = 0
KNH1 192346Z 18007KT 20/01 A2984 RMK A01 T01950011  RH  029%=      5-min Rain = 0
KNH1 192347Z 17006KT 20/01 A2984 RMK A01 T01950012  RH  030%=      5-min Rain = 0
KNH1 192348Z 17006KT 19/01 A2984 RMK A01 T01930012  RH  030%=      5-min Rain = 0
KNH1 192349Z 18006KT 19/01 A2984 RMK A01 T01930012  RH  030%=      5-min Rain = 0
KNH1 192350Z 17006KT 19/01 A2984 RMK A01 T01920013  RH  030%=      5-min Rain = 0
KNH1 192351Z 17006KT 19/01 A2984 RMK A01 T01920014  RH  030%=      5-min Rain = 0
KNH1 192352Z 17006KT 19/01 A2984 RMK A01 T01910013  RH  030%=      5-min Rain = 0
KNH1 192353Z 17006KT 19/01 A2984 RMK A01 T01910013  RH  030%=      5-min Rain = 0
KNH1 192354Z 17006KT 19/01 A2984 RMK A01 T01900013  RH  031%=      5-min Rain = 0
KNH1 192355Z 17005KT 19/01 A2984 RMK A01 T01890013  RH  031%=      5-min Rain = 0
KNH1 192356Z 17005KT 19/01 A2984 RMK A01 T01880013  RH  031%=      5-min Rain = 0
KNH1 192357Z 17005KT 19/01 A2984 RMK A01 T01860013  RH  031%=      5-min Rain = 0
KNH1 192358Z 17006KT 19/01 A2984 RMK A01 T01860013  RH  031%=      5-min Rain = 0
KNH1 192359Z 17006KT 19/01 A2984 RMK A01 T01860014  RH  032%=      5-min Rain = 0
KNH1 200000Z 17006KT 18/02 A2984 RMK A01 T01840015  RH  032%=      5-min Rain = 0
KNH1 200001Z 18006KT 18/02 A2984 RMK A01 T01830015  RH  032%=      5-min Rain = 0
KNH1 200002Z 17006KT 18/02 A2984 RMK A01 T01820015  RH  033%=      5-min Rain = 0
KNH1 200003Z 17006KT 18/02 A2984 RMK A01 T01810015  RH  033%=      5-min Rain = 0
KNH1 200004Z 17006KT 18/02 A2984 RMK A01 T01810015  RH  033%=      5-min Rain = 0
KNH1 200005Z 17006KT 18/02 A2984 RMK A01 T01810015  RH  033%=      5-min Rain = 0
KNH1 200006Z 17006KT 18/02 A2984 RMK A01 T01810016  RH  033%=      5-min Rain = 0
KNH1 200007Z 17006KT 18/02 A2984 RMK A01 T01800015  RH  033%=      5-min Rain = 0
KNH1 200008Z 17006KT 18/02 A2984 RMK A01 T01800015  RH  033%=      5-min Rain = 0
KNH1 200009Z 17006KT 18/02 A2984 RMK A01 T01800016  RH  033%=      5-min Rain = 0
KNH1 200010Z 17007KT 18/02 A2984 RMK A01 T01790016  RH  033%=      5-min Rain = 0
KNH1 200011Z 17007KT 18/02 A2984 RMK A01 T01780016  RH  034%=      5-min Rain = 0
KNH1 200012Z 17006KT 18/02 A2984 RMK A01 T01780016  RH  034%=      5-min Rain = 0
KNH1 200013Z 17006KT 18/02 A2984 RMK A01 T01770017  RH  034%=      5-min Rain = 0
KNH1 200014Z 17007KT 18/02 A2984 RMK A01 T01760016  RH  034%=      5-min Rain = 0
KNH1 200015Z 17006KT 18/02 A2984 RMK A01 T01760016  RH  034%=      5-min Rain = 0
KNH1 200016Z 17007KT 18/02 A2984 RMK A01 T01760016  RH  034%=      5-min Rain = 0
KNH1 200017Z 17007KT 18/02 A2984 RMK A01 T01750017  RH  034%=      5-min Rain = 0
KNH1 200018Z 17007KT 18/02 A2984 RMK A01 T01750016  RH  034%=      5-min Rain = 0
KNH1 200019Z 17006KT 18/02 A2984 RMK A01 T01750016  RH  034%=      5-min Rain = 0
KNH1 200020Z 17006KT 18/02 A2984 RMK A01 T01750017  RH  035%=      5-min Rain = 0
KNH1 200021Z 17007KT 17/02 A2984 RMK A01 T01740016  RH  035%=      5-min Rain = 0
KNH1 200022Z 17006KT 17/02 A2984 RMK A01 T01740017  RH  035%=      5-min Rain = 0
KNH1 200023Z 17007KT 17/02 A2984 RMK A01 T01740017  RH  035%=      5-min Rain = 0
KNH1 200024Z 16007KT 17/02 A2984 RMK A01 T01730017  RH  035%=      5-min Rain = 0
KNH1 200025Z 17007KT 17/02 A2984 RMK A01 T01720018  RH  035%=      5-min Rain = 0
KNH1 200026Z 17007KT 17/02 A2984 RMK A01 T01710017  RH  035%=      5-min Rain = 0
KNH1 200027Z 17007KT 17/02 A2984 RMK A01 T01710018  RH  036%=      5-min Rain = 0
KNH1 200028Z 17007KT 17/02 A2984 RMK A01 T01700018  RH  036%=      5-min Rain = 0
KNH1 200029Z 17007KT 17/02 A2984 RMK A01 T01690018  RH  036%=      5-min Rain = 0
KNH1 200030Z 17007KT 17/02 A2984 RMK A01 T01680018  RH  036%=      5-min Rain = 0
KNH1 200031Z 17007KT 17/02 A2984 RMK A01 T01680019  RH  037%=      5-min Rain = 0
KNH1 200032Z 17006KT 17/02 A2984 RMK A01 T01670019  RH  037%=      5-min Rain = 0
KNH1 200033Z 17006KT 17/02 A2984 RMK A01 T01670019  RH  037%=      5-min Rain = 0
KNH1 200034Z 17006KT 17/02 A2984 RMK A01 T01670019  RH  037%=      5-min Rain = 0
KNH1 200035Z 17008KT 17/02 A2984 RMK A01 T01670019  RH  037%=      5-min Rain = 0
KNH1 200036Z 17007KT 17/02 A2984 RMK A01 T01670020  RH  037%=      5-min Rain = 0
KNH1 200037Z 17007KT 17/02 A2984 RMK A01 T01680021  RH  037%=      5-min Rain = 0
KNH1 200038Z 17007KT 17/02 A2984 RMK A01 T01670021  RH  037%=      5-min Rain = 0
KNH1 200039Z 18007KT 17/02 A2984 RMK A01 T01670021  RH  037%=      5-min Rain = 0
KNH1 200040Z 17007KT 17/02 A2983 RMK A01 T01670022  RH  037%=      5-min Rain = 0
KNH1 200041Z 17007KT 17/02 A2983 RMK A01 T01670021  RH  037%=      5-min Rain = 0
KNH1 200042Z 17007KT 17/02 A2984 RMK A01 T01670021  RH  037%=      5-min Rain = 0
KNH1 200043Z 17007KT 17/02 A2984 RMK A01 T01680021  RH  037%=      5-min Rain = 0
KNH1 200044Z 17007KT 17/02 A2984 RMK A01 T01680021  RH  037%=      5-min Rain = 0
KNH1 200045Z 17006KT 17/02 A2984 RMK A01 T01670022  RH  037%=      5-min Rain = 0
KNH1 200046Z 17007KT 17/02 A2984 RMK A01 T01670022  RH  038%=      5-min Rain = 0
KNH1 200047Z 17007KT 17/02 A2984 RMK A01 T01670022  RH  038%=      5-min Rain = 0
KNH1 200048Z 17007KT 17/02 A2984 RMK A01 T01670022  RH  038%=      5-min Rain = 0
KNH1 200049Z 17006KT 17/02 A2984 RMK A01 T01670021  RH  038%=      5-min Rain = 0
KNH1 200050Z 17007KT 17/02 A2984 RMK A01 T01670021  RH  038%=      5-min Rain = 0
KNH1 200051Z 17007KT 17/02 A2984 RMK A01 T01670022  RH  038%=      5-min Rain = 0
KNH1 200052Z 17007KT 17/02 A2984 RMK A01 T01670022  RH  038%=      5-min Rain = 0
KNH1 200053Z 17007KT 17/02 A2984 RMK A01 T01670022  RH  038%=      5-min Rain = 0
KNH1 200054Z 17007KT 17/02 A2984 RMK A01 T01670022  RH  038%=      5-min Rain = 0
KNH1 200055Z 17007KT 17/02 A2984 RMK A01 T01670022  RH  038%=      5-min Rain = 0
KNH1 200056Z 17008KT 17/02 A2984 RMK A01 T01660022  RH  038%=      5-min Rain = 0
KNH1 200057Z 17008KT 17/02 A2984 RMK A01 T01660022  RH  038%=      5-min Rain = 0
KNH1 200058Z 17007KT 17/02 A2984 RMK A01 T01670022  RH  038%=      5-min Rain = 0
KNH1 200059Z 17007KT 17/02 A2984 RMK A01 T01670023  RH  038%=      5-min Rain = 0
KNH1 200100Z 17007KT 17/02 A2984 RMK A01 T01670023  RH  038%=      5-min Rain = 0
KNH1 200101Z 18007KT 17/02 A2984 RMK A01 T01670024  RH  038%=      5-min Rain = 0
KNH1 200102Z 17008KT 17/02 A2984 RMK A01 T01670024  RH  038%=      5-min Rain = 0
KNH1 200103Z 17009KT 17/02 A2984 RMK A01 T01660024  RH  038%=      5-min Rain = 0
KNH1 200104Z 17010KT 17/02 A2984 RMK A01 T01680024  RH  038%=      5-min Rain = 0
KNH1 200105Z 17009KT 17/02 A2984 RMK A01 T01690024  RH  038%=      5-min Rain = 0
KNH1 200106Z 17009KT 17/03 A2984 RMK A01 T01700025  RH  038%=      5-min Rain = 0
KNH1 200107Z 17009KT 17/03 A2984 RMK A01 T01710025  RH  037%=      5-min Rain = 0
KNH1 200108Z 17009KT 17/03 A2985 RMK A01 T01710025  RH  037%=      5-min Rain = 0
KNH1 200109Z 17009KT 17/03 A2985 RMK A01 T01720025  RH  037%=      5-min Rain = 0
KNH1 200110Z 18009KT 17/03 A2985 RMK A01 T01730025  RH  037%=      5-min Rain = 0
KNH1 200111Z 18008KT 17/03 A2985 RMK A01 T01730025  RH  037%=      5-min Rain = 0
KNH1 200112Z 18008KT 17/03 A2985 RMK A01 T01730025  RH  037%=      5-min Rain = 0
KNH1 200113Z 18009KT 17/03 A2985 RMK A01 T01730026  RH  037%=      5-min Rain = 0
KNH1 200114Z 18009KT 17/03 A2985 RMK A01 T01720025  RH  037%=      5-min Rain = 0
KNH1 200115Z 17008KT 17/03 A2985 RMK A01 T01720026  RH  037%=      5-min Rain = 0
KNH1 200116Z 17008KT 17/03 A2985 RMK A01 T01710026  RH  038%=      5-min Rain = 0
KNH1 200117Z 17007KT 17/03 A2985 RMK A01 T01710026  RH  038%=      5-min Rain = 0
KNH1 200118Z 17008KT 17/03 A2985 RMK A01 T01700025  RH  038%=      5-min Rain = 0
KNH1 200119Z 17007KT 17/03 A2985 RMK A01 T01700025  RH  038%=      5-min Rain = 0
KNH1 200120Z 17008KT 17/03 A2985 RMK A01 T01690025  RH  038%=      5-min Rain = 0
KNH1 200121Z 17007KT 17/03 A2985 RMK A01 T01690025  RH  038%=      5-min Rain = 0
KNH1 200122Z 17007KT 17/03 A2985 RMK A01 T01680025  RH  038%=      5-min Rain = 0
KNH1 200123Z 17006KT 17/03 A2985 RMK A01 T01670025  RH  038%=      5-min Rain = 0
KNH1 200124Z 17006KT 17/03 A2985 RMK A01 T01670025  RH  039%=      5-min Rain = 0
KNH1 200125Z 17006KT 17/03 A2985 RMK A01 T01660025  RH  039%=      5-min Rain = 0
KNH1 200126Z 17007KT 17/03 A2985 RMK A01 T01650025  RH  039%=      5-min Rain = 0
KNH1 200127Z 16007KT 16/03 A2985 RMK A01 T01640025  RH  039%=      5-min Rain = 0
KNH1 200128Z 17007KT 16/03 A2985 RMK A01 T01630025  RH  039%=      5-min Rain = 0
KNH1 200129Z 16007KT 16/03 A2985 RMK A01 T01620025  RH  040%=      5-min Rain = 0
KNH1 200130Z 17007KT 16/03 A2985 RMK A01 T01610025  RH  040%=      5-min Rain = 0
KNH1 200131Z 16007KT 16/03 A2985 RMK A01 T01600026  RH  040%=      5-min Rain = 0
KNH1 200132Z 17006KT 16/03 A2985 RMK A01 T01590026  RH  041%=      5-min Rain = 0
KNH1 200133Z 16006KT 16/03 A2985 RMK A01 T01580026  RH  041%=      5-min Rain = 0
KNH1 200134Z 17006KT 16/03 A2985 RMK A01 T01570026  RH  041%=      5-min Rain = 0
KNH1 200135Z 17007KT 16/03 A2985 RMK A01 T01570026  RH  041%=      5-min Rain = 0
KNH1 200136Z 17006KT 16/03 A2985 RMK A01 T01570026  RH  041%=      5-min Rain = 0
KNH1 200137Z 17006KT 16/03 A2985 RMK A01 T01570026  RH  041%=      5-min Rain = 0
KNH1 200138Z 18007KT 16/03 A2985 RMK A01 T01570027  RH  042%=      5-min Rain = 0
KNH1 200139Z 17008KT 16/03 A2985 RMK A01 T01570026  RH  041%=      5-min Rain = 0
KNH1 200140Z 18008KT 16/03 A2985 RMK A01 T01570025  RH  041%=      5-min Rain = 0
KNH1 200141Z 18007KT 16/03 A2985 RMK A01 T01580025  RH  041%=      5-min Rain = 0
KNH1 200142Z 18007KT 16/03 A2985 RMK A01 T01590025  RH  040%=      5-min Rain = 0
KNH1 200143Z 18006KT 16/03 A2985 RMK A01 T01590025  RH  040%=      5-min Rain = 0
KNH1 200144Z 18007KT 16/03 A2985 RMK A01 T01590025  RH  040%=      5-min Rain = 0
KNH1 200145Z 18007KT 16/02 A2985 RMK A01 T01590024  RH  040%=      5-min Rain = 0
KNH1 200146Z 18008KT 16/02 A2985 RMK A01 T01590024  RH  040%=      5-min Rain = 0
KNH1 200147Z 18008KT 16/02 A2985 RMK A01 T01580024  RH  040%=      5-min Rain = 0
KNH1 200148Z 18008KT 16/03 A2985 RMK A01 T01570025  RH  041%=      5-min Rain = 0
KNH1 200149Z 18008KT 16/03 A2985 RMK A01 T01560025  RH  041%=      5-min Rain = 0
KNH1 200150Z 18009KT 16/03 A2985 RMK A01 T01560025  RH  041%=      5-min Rain = 0
KNH1 200151Z 18008KT 16/03 A2985 RMK A01 T01550025  RH  042%=      5-min Rain = 0
KNH1 200152Z 18008KT 15/03 A2985 RMK A01 T01540026  RH  042%=      5-min Rain = 0
KNH1 200153Z 18008KT 15/03 A2985 RMK A01 T01540026  RH  042%=      5-min Rain = 0
KNH1 200154Z 18008KT 15/03 A2985 RMK A01 T01540026  RH  042%=      5-min Rain = 0
KNH1 200155Z 18008KT 15/03 A2985 RMK A01 T01530026  RH  042%=      5-min Rain = 0
KNH1 200156Z 18008KT 15/03 A2985 RMK A01 T01520027  RH  043%=      5-min Rain = 0
KNH1 200157Z 18008KT 15/03 A2985 RMK A01 T01520027  RH  043%=      5-min Rain = 0
KNH1 200158Z 18008KT 15/03 A2985 RMK A01 T01510026  RH  043%=      5-min Rain = 0
KNH1 200159Z 18008KT 15/03 A2985 RMK A01 T01510026  RH  043%=      5-min Rain = 0
KNH1 200200Z 18008KT 15/03 A2985 RMK A01 T01510026  RH  043%=      5-min Rain = 0
KNH1 200201Z 18009KT 15/03 A2986 RMK A01 T01510027  RH  043%=      5-min Rain = 0
KNH1 200202Z 18008KT 15/03 A2986 RMK A01 T01500027  RH  043%=      5-min Rain = 0
KNH1 200203Z 18009KT 15/03 A2986 RMK A01 T01500027  RH  043%=      5-min Rain = 0
KNH1 200204Z 18009KT 15/03 A2986 RMK A01 T01490027  RH  044%=      5-min Rain = 0
KNH1 200205Z 18009KT 15/03 A2986 RMK A01 T01490027  RH  044%=      5-min Rain = 0
KNH1 200206Z 18009KT 15/03 A2986 RMK A01 T01490027  RH  044%=      5-min Rain = 0
KNH1 200207Z 18009KT 15/03 A2986 RMK A01 T01480027  RH  044%=      5-min Rain = 0
KNH1 200208Z 18009KT 15/03 A2986 RMK A01 T01480027  RH  044%=      5-min Rain = 0
KNH1 200209Z 18009KT 15/03 A2986 RMK A01 T01480026  RH  044%=      5-min Rain = 0
KNH1 200210Z 18009KT 15/03 A2986 RMK A01 T01480026  RH  044%=      5-min Rain = 0
KNH1 200211Z 19009KT 15/03 A2986 RMK A01 T01490025  RH  043%=      5-min Rain = 0
KNH1 200212Z 18008KT 15/03 A2986 RMK A01 T01490025  RH  043%=      5-min Rain = 0
KNH1 200213Z 18008KT 15/03 A2985 RMK A01 T01490025  RH  043%=      5-min Rain = 0
KNH1 200214Z 18008KT 15/03 A2985 RMK A01 T01480025  RH  043%=      5-min Rain = 0
KNH1 200215Z 18009KT 15/02 A2985 RMK A01 T01480024  RH  043%=      5-min Rain = 0
KNH1 200216Z 18009KT 15/02 A2985 RMK A01 T01480024  RH  043%=      5-min Rain = 0
KNH1 200217Z 18009KT 15/02 A2985 RMK A01 T01480024  RH  043%=      5-min Rain = 0
KNH1 200218Z 18008KT 15/02 A2985 RMK A01 T01480024  RH  043%=      5-min Rain = 0
KNH1 200219Z 18008KT 15/02 A2985 RMK A01 T01480023  RH  043%=      5-min Rain = 0
KNH1 200220Z 18008KT 15/02 A2985 RMK A01 T01490023  RH  043%=      5-min Rain = 0
KNH1 200221Z 18008KT 15/02 A2985 RMK A01 T01490023  RH  043%=      5-min Rain = 0
KNH1 200222Z 18008KT 15/02 A2986 RMK A01 T01490023  RH  043%=      5-min Rain = 0
KNH1 200223Z 18008KT 15/02 A2986 RMK A01 T01490023  RH  042%=      5-min Rain = 0
KNH1 200224Z 18008KT 15/02 A2986 RMK A01 T01490023  RH  043%=      5-min Rain = 0
KNH1 200225Z 18007KT 15/02 A2986 RMK A01 T01490023  RH  043%=      5-min Rain = 0
KNH1 200226Z 18007KT 15/02 A2986 RMK A01 T01490023  RH  043%=      5-min Rain = 0
KNH1 200227Z 18006KT 15/02 A2986 RMK A01 T01490023  RH  043%=      5-min Rain = 0
KNH1 200228Z 18007KT 15/02 A2986 RMK A01 T01480023  RH  043%=      5-min Rain = 0
KNH1 200229Z 18007KT 15/02 A2986 RMK A01 T01490023  RH  043%=      5-min Rain = 0
KNH1 200230Z 18007KT 15/02 A2986 RMK A01 T01490023  RH  042%=      5-min Rain = 0
KNH1 200231Z 18007KT 15/02 A2986 RMK A01 T01490023  RH  042%=      5-min Rain = 0
KNH1 200232Z 18007KT 15/02 A2986 RMK A01 T01490023  RH  042%=      5-min Rain = 0
KNH1 200233Z 18008KT 15/02 A2986 RMK A01 T01490023  RH  042%=      5-min Rain = 0
KNH1 200234Z 18007KT 15/02 A2986 RMK A01 T01500023  RH  043%=      5-min Rain = 0
KNH1 200235Z 18008KT 15/02 A2986 RMK A01 T01480023  RH  043%=      5-min Rain = 0
KNH1 200236Z 18008KT 15/02 A2986 RMK A01 T01480023  RH  043%=      5-min Rain = 0
KNH1 200237Z 18008KT 15/02 A2986 RMK A01 T01480023  RH  043%=      5-min Rain = 0
KNH1 200238Z 18008KT 15/02 A2985 RMK A01 T01480023  RH  043%=      5-min Rain = 0
KNH1 200239Z 18009KT 15/02 A2985 RMK A01 T01470023  RH  043%=      5-min Rain = 0
KNH1 200240Z 18008KT 15/02 A2985 RMK A01 T01470023  RH  043%=      5-min Rain = 0
KNH1 200241Z 18008KT 15/02 A2985 RMK A01 T01470023  RH  043%=      5-min Rain = 0
KNH1 200242Z 18007KT 15/02 A2985 RMK A01 T01470023  RH  043%=      5-min Rain = 0
KNH1 200243Z 18007KT 15/02 A2985 RMK A01 T01470023  RH  043%=      5-min Rain = 0
KNH1 200244Z 17007KT 15/02 A2985 RMK A01 T01470022  RH  043%=      5-min Rain = 0
KNH1 200245Z 18007KT 15/02 A2985 RMK A01 T01480023  RH  043%=      5-min Rain = 0
KNH1 200246Z 18008KT 15/02 A2985 RMK A01 T01480022  RH  043%=      5-min Rain = 0
KNH1 200247Z 17007KT 15/02 A2985 RMK A01 T01490022  RH  043%=      5-min Rain = 0
KNH1 200248Z 18007KT 15/02 A2985 RMK A01 T01490023  RH  043%=      5-min Rain = 0
KNH1 200249Z 17008KT 15/02 A2985 RMK A01 T01480023  RH  043%=      5-min Rain = 0
KNH1 200250Z 18008KT 15/02 A2985 RMK A01 T01480023  RH  043%=      5-min Rain = 0
KNH1 200251Z 18007KT 15/02 A2985 RMK A01 T01470023  RH  043%=      5-min Rain = 0
KNH1 200252Z 18007KT 15/02 A2985 RMK A01 T01460023  RH  044%=      5-min Rain = 0
KNH1 200253Z 18007KT 15/02 A2985 RMK A01 T01460024  RH  044%=      5-min Rain = 0
KNH1 200254Z 18008KT 15/02 A2985 RMK A01 T01450024  RH  044%=      5-min Rain = 0
KNH1 200255Z 18008KT 15/02 A2985 RMK A01 T01450024  RH  044%=      5-min Rain = 0
KNH1 200256Z 18009KT 15/02 A2985 RMK A01 T01450024  RH  044%=      5-min Rain = 0
KNH1 200257Z 18007KT 15/02 A2985 RMK A01 T01450024  RH  044%=      5-min Rain = 0
KNH1 200258Z 18007KT 14/02 A2985 RMK A01 T01440024  RH  044%=      5-min Rain = 0
KNH1 200259Z 18007KT 14/03 A2985 RMK A01 T01440025  RH  045%=      5-min Rain = 0
KNH1 200300Z 18007KT 14/03 A2985 RMK A01 T01430025  RH  045%=      5-min Rain = 0
KNH1 200301Z 18008KT 14/03 A2985 RMK A01 T01430025  RH  045%=      5-min Rain = 0
KNH1 200302Z 18007KT 14/03 A2985 RMK A01 T01430026  RH  045%=      5-min Rain = 0
KNH1 200303Z 18008KT 14/03 A2985 RMK A01 T01430026  RH  045%=      5-min Rain = 0
KNH1 200304Z 18008KT 14/03 A2985 RMK A01 T01430027  RH  045%=      5-min Rain = 0
KNH1 200305Z 18009KT 14/03 A2985 RMK A01 T01430027  RH  046%=      5-min Rain = 0
KNH1 200306Z 19009KT 14/03 A2985 RMK A01 T01430028  RH  046%=      5-min Rain = 0
KNH1 200307Z 18009KT 14/03 A2985 RMK A01 T01440028  RH  046%=      5-min Rain = 0
KNH1 200308Z 18009KT 14/03 A2985 RMK A01 T01440029  RH  046%=      5-min Rain = 0
KNH1 200309Z 18009KT 14/03 A2985 RMK A01 T01440030  RH  046%=      5-min Rain = 0
KNH1 200310Z 18009KT 14/03 A2985 RMK A01 T01440031  RH  046%=      5-min Rain = 0
KNH1 200311Z 18009KT 14/03 A2985 RMK A01 T01430031  RH  047%=      5-min Rain = 0
KNH1 200312Z 18009KT 14/03 A2985 RMK A01 T01430032  RH  047%=      5-min Rain = 0
KNH1 200313Z 18009KT 14/03 A2985 RMK A01 T01430033  RH  047%=      5-min Rain = 0
KNH1 200314Z 18009KT 14/03 A2985 RMK A01 T01430033  RH  048%=      5-min Rain = 0
KNH1 200315Z 18009KT 14/03 A2985 RMK A01 T01430034  RH  048%=      5-min Rain = 0
KNH1 200316Z 18010KT 14/04 A2985 RMK A01 T01430035  RH  048%=      5-min Rain = 0
KNH1 200317Z 18010KT 14/04 A2985 RMK A01 T01430035  RH  048%=      5-min Rain = 0
KNH1 200318Z 18010KT 14/04 A2985 RMK A01 T01430036  RH  048%=      5-min Rain = 0
KNH1 200319Z 18010KT 14/04 A2985 RMK A01 T01430036  RH  048%=      5-min Rain = 0
KNH1 200320Z 18010KT 14/04 A2985 RMK A01 T01440036  RH  048%=      5-min Rain = 0
KNH1 200321Z 18009KT 14/04 A2985 RMK A01 T01440037  RH  049%=      5-min Rain = 0
KNH1 200322Z 18010KT 14/04 A2985 RMK A01 T01420037  RH  049%=      5-min Rain = 0
KNH1 200323Z 18010KT 14/04 A2985 RMK A01 T01420038  RH  050%=      5-min Rain = 0
KNH1 200324Z 18010KT 14/04 A2985 RMK A01 T01410038  RH  050%=      5-min Rain = 0
KNH1 200325Z 18010KT 14/04 A2985 RMK A01 T01410039  RH  050%=      5-min Rain = 0
KNH1 200326Z 18010KT 14/04 A2985 RMK A01 T01410039  RH  050%=      5-min Rain = 0
KNH1 200327Z 18011KT 14/04 A2985 RMK A01 T01410040  RH  050%=      5-min Rain = 0
KNH1 200328Z 18011KT 14/04 A2985 RMK A01 T01410040  RH  051%=      5-min Rain = 0
KNH1 200329Z 18011KT 14/04 A2986 RMK A01 T01410040  RH  051%=      5-min Rain = 0
KNH1 200330Z 18011KT 14/04 A2986 RMK A01 T01410041  RH  051%=      5-min Rain = 0
KNH1 200331Z 18011KT 14/04 A2986 RMK A01 T01410041  RH  051%=      5-min Rain = 0
KNH1 200332Z 18010KT 14/04 A2986 RMK A01 T01410042  RH  051%=      5-min Rain = 0
KNH1 200333Z 19010KT 14/04 A2986 RMK A01 T01410042  RH  051%=      5-min Rain = 0
KNH1 200334Z 18011KT 14/04 A2986 RMK A01 T01410043  RH  052%=      5-min Rain = 0
KNH1 200335Z 18011KT 14/04 A2986 RMK A01 T01410043  RH  052%=      5-min Rain = 0
KNH1 200336Z 18011KT 14/04 A2986 RMK A01 T01410043  RH  052%=      5-min Rain = 0
KNH1 200337Z 18011KT 14/04 A2986 RMK A01 T01400043  RH  052%=      5-min Rain = 0
KNH1 200338Z 18010KT 14/04 A2986 RMK A01 T01400044  RH  052%=      5-min Rain = 0
KNH1 200339Z 18010KT 14/05 A2986 RMK A01 T01400045  RH  053%=      5-min Rain = 0
KNH1 200340Z 18010KT 14/05 A2986 RMK A01 T01390045  RH  053%=      5-min Rain = 0
KNH1 200341Z 19010KT 14/05 A2986 RMK A01 T01390045  RH  053%=      5-min Rain = 0
KNH1 200342Z 18010KT 14/05 A2986 RMK A01 T01400046  RH  053%=      5-min Rain = 0
KNH1 200343Z 18009KT 14/05 A2986 RMK A01 T01400046  RH  053%=      5-min Rain = 0
KNH1 200344Z 18010KT 14/05 A2986 RMK A01 T01400047  RH  053%=      5-min Rain = 0
KNH1 200345Z 18010KT 14/05 A2986 RMK A01 T01390047  RH  053%=      5-min Rain = 0
KNH1 200346Z 18010KT 14/05 A2986 RMK A01 T01400047  RH  054%=      5-min Rain = 0
KNH1 200347Z 18010KT 14/05 A2986 RMK A01 T01400047  RH  054%=      5-min Rain = 0
KNH1 200348Z 19010KT 14/05 A2986 RMK A01 T01400048  RH  054%=      5-min Rain = 0
KNH1 200349Z 18011KT 14/05 A2986 RMK A01 T01400049  RH  054%=      5-min Rain = 0
KNH1 200350Z 19009KT 14/05 A2986 RMK A01 T01400049  RH  054%=      5-min Rain = 0
KNH1 200351Z 18010KT 14/05 A2986 RMK A01 T01400050  RH  054%=      5-min Rain = 0
KNH1 200352Z 18010KT 14/05 A2986 RMK A01 T01410050  RH  054%=      5-min Rain = 0
KNH1 200353Z 18010KT 14/05 A2986 RMK A01 T01410050  RH  054%=      5-min Rain = 0
KNH1 200354Z 18010KT 14/05 A2986 RMK A01 T01410051  RH  055%=      5-min Rain = 0
KNH1 200355Z 18011KT 14/05 A2986 RMK A01 T01420052  RH  055%=      5-min Rain = 0
KNH1 200356Z 18010KT 14/05 A2985 RMK A01 T01420052  RH  055%=      5-min Rain = 0
KNH1 200357Z 18010KT 14/05 A2985 RMK A01 T01430053  RH  055%=      5-min Rain = 0
KNH1 200358Z 18012KT 14/05 A2985 RMK A01 T01430054  RH  055%=      5-min Rain = 0
KNH1 200359Z 18011KT 14/05 A2985 RMK A01 T01440054  RH  055%=      5-min Rain = 0
KNH1 200400Z 19011KT 15/06 A2985 RMK A01 T01450055  RH  055%=      5-min Rain = 0
KNH1 200401Z 18011KT 15/06 A2985 RMK A01 T01460055  RH  055%=      5-min Rain = 0
KNH1 200402Z 19011KT 15/06 A2985 RMK A01 T01460056  RH  054%=      5-min Rain = 0
KNH1 200403Z 19010KT 15/06 A2985 RMK A01 T01460056  RH  055%=      5-min Rain = 0
KNH1 200404Z 19010KT 15/06 A2985 RMK A01 T01460056  RH  055%=      5-min Rain = 0
KNH1 200405Z 18010KT 15/06 A2985 RMK A01 T01450056  RH  055%=      5-min Rain = 0
KNH1 200406Z 19010KT 15/06 A2985 RMK A01 T01450056  RH  055%=      5-min Rain = 0
KNH1 200407Z 18010KT 14/06 A2985 RMK A01 T01440057  RH  056%=      5-min Rain = 0
KNH1 200408Z 18010KT 14/06 A2985 RMK A01 T01440057  RH  056%=      5-min Rain = 0
KNH1 200409Z 18009KT 14/06 A2985 RMK A01 T01440057  RH  056%=      5-min Rain = 0
KNH1 200410Z 18010KT 14/06 A2985 RMK A01 T01440058  RH  056%=      5-min Rain = 0
KNH1 200411Z 18010KT 14/06 A2985 RMK A01 T01440058  RH  056%=      5-min Rain = 0
KNH1 200412Z 18010KT 14/06 A2985 RMK A01 T01440058  RH  056%=      5-min Rain = 0
KNH1 200413Z 18009KT 14/06 A2985 RMK A01 T01440058  RH  056%=      5-min Rain = 0
KNH1 200414Z 19009KT 14/06 A2985 RMK A01 T01440059  RH  057%=      5-min Rain = 0
KNH1 200415Z 18009KT 14/06 A2985 RMK A01 T01430059  RH  057%=      5-min Rain = 0
KNH1 200416Z 19009KT 14/06 A2985 RMK A01 T01430059  RH  057%=      5-min Rain = 0
KNH1 200417Z 19010KT 14/06 A2985 RMK A01 T01430059  RH  057%=      5-min Rain = 0
KNH1 200418Z 19010KT 14/06 A2985 RMK A01 T01430059  RH  057%=      5-min Rain = 0
KNH1 200419Z 19011KT 14/06 A2985 RMK A01 T01430060  RH  058%=      5-min Rain = 0
KNH1 200420Z 19010KT 14/06 A2985 RMK A01 T01430060  RH  058%=      5-min Rain = 0
KNH1 200421Z 18010KT 14/06 A2985 RMK A01 T01430061  RH  058%=      5-min Rain = 0
KNH1 200422Z 18010KT 14/06 A2985 RMK A01 T01420061  RH  058%=      5-min Rain = 0
KNH1 200423Z 18011KT 14/06 A2985 RMK A01 T01420061  RH  058%=      5-min Rain = 0
KNH1 200424Z 19010KT 14/06 A2985 RMK A01 T01420061  RH  058%=      5-min Rain = 0
KNH1 200425Z 19010KT 14/06 A2985 RMK A01 T01420061  RH  058%=      5-min Rain = 0
KNH1 200426Z 18011KT 14/06 A2985 RMK A01 T01420061  RH  058%=      5-min Rain = 0
KNH1 200427Z 18011KT 14/06 A2985 RMK A01 T01430062  RH  058%=      5-min Rain = 0
KNH1 200428Z 18011KT 14/06 A2985 RMK A01 T01430062  RH  058%=      5-min Rain = 0
KNH1 200429Z 18010KT 14/06 A2985 RMK A01 T01440063  RH  058%=      5-min Rain = 0
KNH1 200430Z 18010KT 14/06 A2985 RMK A01 T01430063  RH  058%=      5-min Rain = 0
KNH1 200431Z 18010KT 14/06 A2985 RMK A01 T01440064  RH  058%=      5-min Rain = 0
KNH1 200432Z 18009KT 14/06 A2985 RMK A01 T01440064  RH  059%=      5-min Rain = 0
KNH1 200433Z 18010KT 14/06 A2985 RMK A01 T01440064  RH  059%=      5-min Rain = 0
KNH1 200434Z 18010KT 14/06 A2985 RMK A01 T01430064  RH  059%=      5-min Rain = 0
KNH1 200435Z 18009KT 14/06 A2985 RMK A01 T01430064  RH  059%=      5-min Rain = 0
KNH1 200436Z 18010KT 14/06 A2985 RMK A01 T01420063  RH  059%=      5-min Rain = 0
KNH1 200437Z 18009KT 14/06 A2985 RMK A01 T01420064  RH  059%=      5-min Rain = 0
KNH1 200438Z 18009KT 14/06 A2985 RMK A01 T01420064  RH  059%=      5-min Rain = 0
KNH1 200439Z 18009KT 14/06 A2985 RMK A01 T01420064  RH  059%=      5-min Rain = 0
KNH1 200440Z 18009KT 14/06 A2985 RMK A01 T01420064  RH  060%=      5-min Rain = 0
KNH1 200441Z 19010KT 14/07 A2985 RMK A01 T01410065  RH  060%=      5-min Rain = 0
KNH1 200442Z 18009KT 14/07 A2985 RMK A01 T01410065  RH  060%=      5-min Rain = 0
KNH1 200443Z 18011KT 14/07 A2985 RMK A01 T01410066  RH  060%=      5-min Rain = 0
KNH1 200444Z 18010KT 14/07 A2986 RMK A01 T01410066  RH  061%=      5-min Rain = 0
KNH1 200445Z 18010KT 14/07 A2986 RMK A01 T01410066  RH  061%=      5-min Rain = 0
KNH1 200446Z 18010KT 14/07 A2986 RMK A01 T01410067  RH  061%=      5-min Rain = 0
KNH1 200447Z 18010KT 14/07 A2986 RMK A01 T01400067  RH  061%=      5-min Rain = 0
KNH1 200448Z 18009KT 14/07 A2986 RMK A01 T01410067  RH  061%=      5-min Rain = 0
KNH1 200449Z 19009KT 14/07 A2986 RMK A01 T01410067  RH  061%=      5-min Rain = 0
KNH1 200450Z 19010KT 14/07 A2986 RMK A01 T01400067  RH  061%=      5-min Rain = 0
KNH1 200451Z 19010KT 14/07 A2986 RMK A01 T01400066  RH  061%=      5-min Rain = 0
KNH1 200452Z 19010KT 14/07 A2986 RMK A01 T01410066  RH  061%=      5-min Rain = 0
KNH1 200453Z 19010KT 14/07 A2986 RMK A01 T01410067  RH  061%=      5-min Rain = 0
KNH1 200454Z 19010KT 14/07 A2986 RMK A01 T01410067  RH  061%=      5-min Rain = 0
KNH1 200455Z 19011KT 14/07 A2986 RMK A01 T01410067  RH  061%=      5-min Rain = 0
KNH1 200456Z 19011KT 14/07 A2987 RMK A01 T01410068  RH  061%=      5-min Rain = 0
KNH1 200457Z 19010KT 14/07 A2987 RMK A01 T01420068  RH  061%=      5-min Rain = 0
KNH1 200458Z 19009KT 14/07 A2987 RMK A01 T01420068  RH  061%=      5-min Rain = 0
KNH1 200459Z 19010KT 14/07 A2987 RMK A01 T01420068  RH  061%=      5-min Rain = 0
KNH1 200500Z 19010KT 14/07 A2987 RMK A01 T01420068  RH  061%=      5-min Rain = 0
KNH1 200501Z 19010KT 14/07 A2987 RMK A01 T01430069  RH  061%=      5-min Rain = 0
KNH1 200502Z 19010KT 14/07 A2987 RMK A01 T01430068  RH  061%=      5-min Rain = 0
KNH1 200503Z 19010KT 14/07 A2987 RMK A01 T01430069  RH  061%=      5-min Rain = 0
KNH1 200504Z 18010KT 14/07 A2986 RMK A01 T01430068  RH  061%=      5-min Rain = 0
KNH1 200505Z 19008KT 14/07 A2986 RMK A01 T01440069  RH  061%=      5-min Rain = 0
KNH1 200506Z 19009KT 14/07 A2986 RMK A01 T01430069  RH  061%=      5-min Rain = 0
KNH1 200507Z 18010KT 14/07 A2986 RMK A01 T01430069  RH  061%=      5-min Rain = 0
KNH1 200508Z 19010KT 14/07 A2986 RMK A01 T01430069  RH  061%=      5-min Rain = 0
KNH1 200509Z 19010KT 14/07 A2986 RMK A01 T01430069  RH  061%=      5-min Rain = 0
KNH1 200510Z 19010KT 14/07 A2986 RMK A01 T01430070  RH  061%=      5-min Rain = 0
KNH1 200511Z 19009KT 14/07 A2986 RMK A01 T01440070  RH  061%=      5-min Rain = 0
KNH1 200512Z 19011KT 14/07 A2986 RMK A01 T01440070  RH  061%=      5-min Rain = 0
KNH1 200513Z 19010KT 14/07 A2986 RMK A01 T01440070  RH  061%=      5-min Rain = 0
KNH1 200514Z 19009KT 14/07 A2986 RMK A01 T01440070  RH  061%=      5-min Rain = 0
KNH1 200515Z 19009KT 14/07 A2986 RMK A01 T01440070  RH  061%=      5-min Rain = 0
KNH1 200516Z 19011KT 14/07 A2986 RMK A01 T01440070  RH  061%=      5-min Rain = 0
KNH1 200517Z 19010KT 15/07 A2986 RMK A01 T01450071  RH  061%=      5-min Rain = 0
KNH1 200518Z 19009KT 15/07 A2986 RMK A01 T01450071  RH  061%=      5-min Rain = 0
KNH1 200519Z 19010KT 15/07 A2986 RMK A01 T01450071  RH  061%=      5-min Rain = 0
KNH1 200520Z 19010KT 15/07 A2986 RMK A01 T01450071  RH  061%=      5-min Rain = 0
KNH1 200521Z 19009KT 15/07 A2986 RMK A01 T01450071  RH  061%=      5-min Rain = 0
KNH1 200522Z 19010KT 15/07 A2986 RMK A01 T01450071  RH  061%=      5-min Rain = 0
KNH1 200523Z 19010KT 15/07 A2986 RMK A01 T01450071  RH  061%=      5-min Rain = 0
KNH1 200524Z 19010KT 15/07 A2986 RMK A01 T01460071  RH  061%=      5-min Rain = 0
KNH1 200525Z 19010KT 15/07 A2986 RMK A01 T01460071  RH  061%=      5-min Rain = 0
KNH1 200526Z 19009KT 15/07 A2986 RMK A01 T01460072  RH  061%=      5-min Rain = 0
KNH1 200527Z 20010KT 15/07 A2986 RMK A01 T01460072  RH  061%=      5-min Rain = 0
KNH1 200528Z 19009KT 15/07 A2986 RMK A01 T01460072  RH  061%=      5-min Rain = 0
KNH1 200529Z 19010KT 15/07 A2986 RMK A01 T01460072  RH  061%=      5-min Rain = 0
KNH1 200530Z 19010KT 15/07 A2986 RMK A01 T01450072  RH  061%=      5-min Rain = 0
KNH1 200531Z 20009KT 15/07 A2986 RMK A01 T01450072  RH  061%=      5-min Rain = 0
KNH1 200532Z 20010KT 15/07 A2986 RMK A01 T01450072  RH  061%=      5-min Rain = 0
KNH1 200533Z 19010KT 15/07 A2986 RMK A01 T01450072  RH  062%=      5-min Rain = 0
KNH1 200534Z 20009KT 15/07 A2986 RMK A01 T01450073  RH  062%=      5-min Rain = 0
KNH1 200535Z 20009KT 15/07 A2986 RMK A01 T01450073  RH  062%=      5-min Rain = 0
KNH1 200536Z 20009KT 15/07 A2986 RMK A01 T01450073  RH  062%=      5-min Rain = 0
KNH1 200537Z 20010KT 14/07 A2986 RMK A01 T01440073  RH  062%=      5-min Rain = 0
KNH1 200538Z 20011KT 14/07 A2986 RMK A01 T01440073  RH  062%=      5-min Rain = 0
KNH1 200539Z 20010KT 14/07 A2986 RMK A01 T01440073  RH  062%=      5-min Rain = 0
KNH1 200540Z 20009KT 14/07 A2986 RMK A01 T01440073  RH  062%=      5-min Rain = 0
KNH1 200541Z 20010KT 14/07 A2986 RMK A01 T01430073  RH  063%=      5-min Rain = 0
KNH1 200542Z 20010KT 14/07 A2986 RMK A01 T01430073  RH  063%=      5-min Rain = 0
KNH1 200543Z 20009KT 14/07 A2986 RMK A01 T01430073  RH  063%=      5-min Rain = 0
KNH1 200544Z 20009KT 14/07 A2986 RMK A01 T01420073  RH  063%=      5-min Rain = 0
KNH1 200545Z 20010KT 14/07 A2986 RMK A01 T01420073  RH  063%=      5-min Rain = 0
KNH1 200546Z 20011KT 14/07 A2986 RMK A01 T01420073  RH  063%=      5-min Rain = 0
KNH1 200547Z 21010KT 14/07 A2986 RMK A01 T01420074  RH  063%=      5-min Rain = 0
KNH1 200548Z 21010KT 14/07 A2986 RMK A01 T01420074  RH  063%=      5-min Rain = 0
KNH1 200549Z 21010KT 14/07 A2986 RMK A01 T01430074  RH  063%=      5-min Rain = 0
KNH1 200550Z 20010KT 14/07 A2986 RMK A01 T01430074  RH  063%=      5-min Rain = 0
KNH1 200551Z 21010KT 14/07 A2986 RMK A01 T01430074  RH  063%=      5-min Rain = 0
KNH1 200552Z 21010KT 14/07 A2986 RMK A01 T01430074  RH  063%=      5-min Rain = 0
KNH1 200553Z 20010KT 14/07 A2986 RMK A01 T01440074  RH  063%=      5-min Rain = 0
KNH1 200554Z 20010KT 14/08 A2986 RMK A01 T01440075  RH  063%=      5-min Rain = 0
KNH1 200555Z 20011KT 14/08 A2986 RMK A01 T01440075  RH  063%=      5-min Rain = 0
KNH1 200556Z 20011KT 14/08 A2986 RMK A01 T01440075  RH  063%=      5-min Rain = 0
KNH1 200557Z 20010KT 15/08 A2986 RMK A01 T01450075  RH  063%=      5-min Rain = 0
KNH1 200558Z 20011KT 15/07 A2986 RMK A01 T01450074  RH  063%=      5-min Rain = 0
KNH1 200559Z 20009KT 15/08 A2986 RMK A01 T01450075  RH  063%=      5-min Rain = 0

Page generated in 0.1408 seconds.